[{"header": {"dx": 0.06612293990616946, "dy": 0.0552356325346848, "nx": 98, "ny": 59, "la1": 35.046912555036876, "la2": 31.78801023549047, "lo1": -121.43107172385933, "lo2": -114.95102361305473, "refTime": "2026040915", "parameterCategory": 1, "parameterNumber": 2}, "data": [3.35, 3.35, 3.35, 3.14, 3.14, 2.79, 2.53, 2.21, 1.88, 1.24, 0.8, 0.0, 0.89, 0.89, 0.89, 1.34, 1.34, 0.89, 1.34, 1.34, -1.34, -1.79, -1.9, -1.74, -2.41, -2.0, -1.49, -1.8, -1.98, -2.21, -1.9, -2.0, -1.79, -1.34, 0.89, 0.0, 0.0, 0.89, 0.89, 0.89, 1.34, 3.13, 5.2, 7.2, 9.48, 11.5, 14.11, 15.13, 13.51, 7.89, 3.2, 4.11, 5.82, 5.77, 6.44, 7.06, 8.06, 9.03, 9.6, 9.9, 10.01, 10.25, 9.33, 8.14, 7.47, 7.89, 8.55, 9.49, 10.15, 11.5, 11.87, 11.37, 10.25, 9.54, 7.89, 6.65, 5.36, 3.13, 1.34, 0.89, -1.34, 0.89, 0.0, 0.0, 0.0, -0.8, 0.0, 0.0, 2.53, 5.21, 6.79, 7.41, 8.03, 8.32, 8.67, 7.67, 6.8, 5.2, 3.35, 3.35, 3.35, 3.14, 3.14, 2.79, 2.53, 1.88, 1.88, 1.2, 0.71, 0.0, 0.0, 0.0, 1.79, 1.79, 1.34, 1.79, 0.0, 0.0, 1.34, -1.79, -2.68, -3.2, -2.84, -2.41, -1.8, -1.8, -1.98, -2.6, -2.54, -2.0, -0.95, 0.89, 1.79, 2.68, 2.97, 2.23, 1.26, 0.89, 2.0, 4.46, 6.87, 8.6, 10.43, 12.78, 13.74, 12.49, 7.42, 2.98, 2.76, 5.15, 5.77, 5.72, 6.35, 7.41, 8.06, 9.27, 9.6, 10.15, 10.43, 10.01, 9.49, 8.82, 8.0, 8.0, 8.95, 9.6, 10.43, 11.62, 12.3, 11.87, 11.18, 10.02, 8.8, 8.45, 8.46, 3.13, 1.34, 0.89, -1.34, 0.89, 0.0, 0.0, 0.0, -0.8, 0.0, 0.0, 2.53, 5.21, 6.79, 7.41, 8.03, 8.32, 8.67, 7.67, 6.8, 5.2, 3.35, 3.35, 3.35, 3.14, 3.14, 2.79, 2.53, 2.53, 1.84, 1.16, 0.65, 0.57, 0.0, 0.0, 0.95, 1.79, 2.24, 2.0, 1.0, 0.0, 0.0, -1.79, -3.13, -3.58, -3.82, -2.53, -2.41, -1.8, -1.8, -2.6, -2.68, -2.24, -1.79, -0.0, 2.0, 4.02, 4.47, 4.66, 4.22, 3.58, 4.81, 6.95, 9.06, 10.25, 11.29, 12.09, 11.25, 8.3, 4.57, 4.19, 4.81, 5.15, 5.77, 6.39, 6.68, 7.41, 8.06, 9.6, 9.6, 10.43, 10.43, 10.43, 9.49, 8.95, 8.63, 9.03, 9.6, 10.55, 11.09, 11.62, 12.04, 11.87, 11.36, 10.6, 9.8, 8.94, 9.8, 6.26, 1.79, -1.34, -1.34, -1.34, -1.0, -1.74, -2.21, -1.9, -1.26, 0.0, 3.16, 6.44, 8.03, 7.97, 8.31, 7.97, 7.44, 6.28, 5.75, 5.29, 3.35, 3.35, 3.35, 3.14, 3.14, 2.84, 2.23, 2.23, 1.84, 1.6, 1.16, 0.65, 0.0, 0.0, 1.26, 1.26, 2.4, 2.21, 1.9, 1.0, 0.0, 1.34, -2.8, -4.38, -4.02, -4.02, -2.53, -1.98, -1.6, -1.74, -2.68, -2.6, -2.6, 0.0, 2.68, 4.24, 5.2, 6.64, 6.11, 6.32, 7.9, 9.48, 9.4, 9.56, 9.3, 9.9, 9.24, 8.01, 7.42, 6.79, 6.4, 6.44, 6.44, 6.79, 7.41, 7.69, 8.63, 9.49, 9.9, 9.9, 10.01, 10.43, 9.6, 9.42, 9.05, 9.05, 10.04, 10.09, 10.35, 11.12, 12.15, 12.3, 11.36, 9.81, 8.94, 8.05, 8.49, 7.15, 2.68, -1.79, -1.26, -1.26, -1.74, -2.41, -3.16, -2.21, 0.0, 1.98, 5.06, 8.38, 9.66, 9.0, 7.64, 6.44, 4.92, 4.38, 5.81, 6.26, 3.35, 3.72, 3.35, 3.35, 2.84, 2.84, 2.23, 2.23, 1.8, 1.8, 1.13, 0.65, 0.85, 1.2, 1.2, 1.2, 1.74, 2.53, 2.21, 0.99, 0.0, -1.9, -2.8, -4.02, -3.95, -4.47, -3.58, -1.9, -1.9, -0.85, -0.0, -1.0, -1.66, 0.0, 2.8, 4.29, 5.06, 6.87, 7.18, 7.36, 8.12, 8.65, 8.05, 8.19, 9.36, 9.83, 10.28, 10.28, 9.83, 8.46, 7.35, 7.03, 7.03, 7.07, 7.44, 8.05, 8.95, 8.95, 9.49, 9.9, 9.9, 9.9, 9.6, 8.68, 9.04, 9.3, 9.3, 9.04, 9.27, 10.55, 12.23, 12.98, 11.52, 10.93, 9.39, 6.21, 4.82, 4.02, 2.4, -2.12, -1.74, -0.99, -0.98, -2.53, -3.07, -0.98, 2.68, 5.77, 7.97, 9.27, 9.3, 8.03, 5.46, 2.68, 1.74, 4.38, 6.71, 6.98, 3.72, 3.72, 3.72, 3.43, 2.84, 2.84, 2.51, 2.51, 1.8, 1.8, 1.13, 0.61, 0.85, 1.2, 0.99, 0.99, 1.6, 2.0, 2.68, 1.83, 0.0, -1.49, -3.16, -2.84, -3.6, -2.84, -2.84, -2.21, -1.9, 1.34, -0.0, 0.89, 0.0, 0.76, 3.2, 3.2, 4.03, 6.73, 7.27, 5.9, 4.96, 5.69, 6.28, 8.46, 10.25, 11.15, 11.52, 11.06, 9.39, 8.01, 7.42, 7.63, 7.35, 7.35, 7.89, 8.82, 8.82, 8.4, 8.95, 9.9, 9.49, 8.63, 8.67, 8.68, 8.68, 9.3, 8.68, 8.03, 8.68, 10.28, 12.29, 12.98, 12.56, 12.58, 11.15, 7.15, 3.47, 3.13, 4.15, -0.95, -0.87, 0.0, 0.0, -1.6, -1.72, 0.0, 4.83, 8.22, 8.85, 8.6, 7.35, 5.82, 2.68, -0.0, 1.2, 5.36, 7.85, 7.63, 3.72, 3.72, 3.72, 3.43, 3.43, 3.16, 2.84, 2.23, 2.48, 1.76, 1.11, 0.59, 0.85, 1.2, 1.4, 0.99, 1.8, 2.76, 3.22, 3.72, 2.53, 0.99, -0.76, -1.83, -1.3, -1.19, -1.3, -1.3, -2.4, -1.98, -1.79, -0.0, 1.34, 2.84, 4.01, 3.9, 4.16, 6.01, 5.93, 3.11, 2.4, 3.6, 4.71, 8.0, 10.16, 10.43, 10.75, 9.7, 8.49, 8.05, 7.52, 6.98, 7.21, 7.63, 7.71, 8.8, 8.63, 8.63, 9.06, 9.75, 9.33, 8.55, 8.63, 9.03, 8.63, 8.67, 8.67, 8.05, 8.4, 10.25, 11.66, 12.09, 12.62, 13.65, 12.42, 10.16, 7.55, 5.59, 7.42, 8.94, 1.8, 0.82, 0.83, 0.0, 0.77, 2.7, 5.72, 8.01, 7.9, 6.39, 3.22, 1.34, -0.0, -0.0, 2.24, 6.02, 7.89, 7.76, 3.72, 3.72, 3.43, 3.43, 3.43, 3.16, 2.86, 2.48, 2.22, 1.94, 1.08, 0.57, 0.0, 1.13, 2.84, 2.53, 3.16, 4.11, 4.43, 4.84, 4.85, 4.47, 4.02, 1.98, 0.0, 0.0, 0.0, -2.49, -3.76, -3.79, -3.16, -1.6, 0.0, 4.11, 5.09, 4.65, 4.16, 5.06, 5.75, 3.79, 2.6, 3.6, 4.88, 5.98, 6.01, 6.23, 6.21, 7.6, 7.6, 7.6, 6.26, 6.65, 6.98, 7.89, 8.33, 8.8, 9.06, 9.06, 9.11, 9.54, 9.33, 8.82, 9.24, 8.82, 7.89, 8.0, 8.95, 8.63, 8.36, 9.7, 11.06, 11.52, 12.52, 12.96, 12.04, 10.52, 10.25, 9.75, 11.06, 12.96, 10.05, 3.0, 2.26, 2.12, 2.97, 4.23, 5.86, 7.48, 6.06, 2.4, -1.26, -1.9, -1.9, 0.89, 3.47, 6.7, 8.0, 7.42, 3.72, 3.72, 3.43, 3.43, 3.43, 3.43, 2.86, 2.86, 2.44, 2.2, 1.7, 1.05, 0.0, 0.83, 1.98, 2.6, 3.47, 4.01, 4.11, 4.6, 4.92, 5.36, 5.73, 4.92, 3.6, 1.6, -1.41, -3.76, -4.74, -2.6, 0.0, 0.0, 0.0, 2.4, 4.16, 4.74, 5.06, 5.06, 4.09, 1.79, 1.34, 2.48, 4.02, 3.79, 2.68, -0.0, 2.68, 5.36, 6.21, 6.51, 6.61, 5.75, 6.65, 7.42, 8.33, 8.8, 9.26, 9.7, 9.54, 9.54, 9.54, 9.7, 9.24, 8.14, 7.63, 7.89, 9.97, 10.14, 8.9, 9.36, 10.7, 12.05, 12.96, 12.07, 11.15, 11.15, 11.06, 11.51, 12.94, 14.74, 13.41, 5.06, 2.9, 3.91, 4.37, 5.13, 6.28, 6.73, 3.83, -0.0, -1.9, -1.9, -1.34, 1.26, 5.09, 7.35, 8.0, 6.82, 3.72, 3.72, 3.64, 4.0, 3.78, 3.48, 3.48, 3.15, 2.86, 2.84, 2.32, 2.77, 2.29, 1.71, 0.85, 1.84, 2.57, 2.7, 2.46, 2.33, 2.4, 3.68, 5.06, 4.74, 3.22, 0.0, -1.27, -3.49, -2.8, 0.0, 1.1, 1.18, 1.23, 1.3, 2.6, 3.49, 4.65, 4.22, 2.68, -0.0, -0.0, 1.34, 2.97, 2.24, 1.26, -0.0, -0.0, 2.4, 4.15, 5.2, 5.43, 5.75, 6.51, 7.11, 7.89, 8.8, 9.7, 9.8, 9.8, 9.8, 9.8, 9.36, 8.87, 6.7, 6.94, 8.63, 10.6, 10.18, 9.36, 9.83, 11.62, 12.96, 13.41, 12.52, 12.07, 12.07, 11.52, 11.51, 11.99, 14.3, 16.09, 11.99, 2.8, 3.55, 4.74, 5.09, 5.69, 5.6, 4.02, 1.6, -0.0, -0.0, 0.0, 1.98, 5.82, 8.4, 7.67, 5.15, 3.72, 3.88, 4.0, 4.0, 4.0, 3.73, 3.48, 3.48, 3.49, 3.08, 3.22, 3.42, 4.08, 3.83, 3.27, 2.57, 3.21, 2.83, 2.93, 2.75, 2.44, 2.51, 3.51, 2.44, 1.03, 0.0, -1.41, -2.2, -1.08, 0.0, 1.41, 0.99, 0.45, 0.89, 1.26, 2.53, 3.82, 3.13, 0.8, -0.0, -0.0, 1.34, 1.34, 1.79, 1.79, 1.26, 1.0, 2.21, 2.53, 3.16, 4.19, 5.75, 6.28, 6.94, 7.42, 8.8, 9.81, 9.83, 9.39, 9.39, 8.94, 7.89, 6.16, 5.21, 6.44, 8.82, 10.45, 10.16, 9.83, 10.25, 11.52, 12.88, 12.88, 12.44, 12.44, 12.79, 12.01, 11.37, 11.37, 12.8, 14.59, 14.29, 8.67, 2.2, 2.84, 4.66, 5.44, 5.64, 4.47, 3.58, 2.68, 2.97, 2.21, 2.68, 6.11, 9.03, 6.82, 2.98, 3.72, 3.88, 4.0, 4.0, 4.0, 3.73, 4.07, 3.79, 3.49, 3.49, 3.72, 4.1, 4.47, 5.69, 5.65, 5.06, 4.43, 4.12, 4.47, 4.44, 4.71, 4.19, 3.2, 3.49, 2.53, 3.39, 3.82, 1.26, 1.34, 1.34, 1.79, -0.0, -1.13, -1.98, -0.0, 0.89, 0.89, -0.0, -1.26, -0.0, -0.0, -0.0, 0.89, 0.0, 0.0, 1.34, 2.24, 2.8, 3.2, 3.82, 4.38, 5.29, 6.2, 6.65, 7.55, 8.9, 9.81, 9.39, 7.89, 6.2, 4.15, 3.48, 2.53, 2.53, 4.81, 8.0, 9.9, 10.25, 9.8, 9.8, 10.05, 10.98, 10.98, 11.18, 11.45, 12.8, 12.04, 11.2, 10.73, 11.3, 11.75, 12.3, 11.52, 3.48, 2.53, 4.4, 6.0, 5.6, 5.59, 4.87, 3.95, 3.04, 2.54, 3.58, 6.79, 8.3, 5.75, 1.34, 3.88, 3.88, 4.27, 4.0, 4.37, 4.37, 4.07, 4.07, 3.79, 3.83, 4.12, 4.47, 5.1, 5.71, 7.15, 7.48, 7.01, 6.1, 6.28, 6.95, 7.6, 8.21, 7.98, 7.15, 6.69, 7.58, 8.47, 8.47, 6.68, 4.44, 3.95, 1.9, -0.0, -1.2, -1.2, -1.9, -2.23, -2.21, -1.9, -1.2, -0.0, -0.0, -0.0, 0.0, 0.0, 0.0, 1.27, 2.84, 3.72, 4.09, 3.74, 4.66, 5.59, 6.07, 7.5, 8.05, 8.85, 9.32, 4.82, -1.34, -1.66, -0.0, 1.7, 1.8, 2.68, 4.81, 7.32, 9.65, 9.2, 9.06, 8.33, 8.49, 8.9, 8.82, 9.6, 10.23, 10.15, 9.03, 8.55, 8.55, 7.92, 9.74, 12.01, 11.62, 5.15, 5.82, 6.44, 4.43, 4.4, 5.16, 4.87, 3.51, 3.04, 4.22, 6.82, 7.42, 4.85, 2.4, 3.88, 4.27, 4.27, 4.0, 4.37, 4.37, 4.07, 4.07, 4.11, 4.11, 4.74, 4.47, 5.38, 5.71, 6.87, 7.72, 8.0, 7.81, 8.0, 8.0, 8.96, 10.04, 10.67, 11.18, 11.18, 11.18, 11.18, 11.16, 10.27, 8.92, 7.15, 5.81, 3.13, 0.89, -1.26, -1.9, -1.9, -1.0, -1.0, -1.2, -0.0, -0.0, -0.0, 0.89, 0.0, 1.6, 1.8, 2.73, 3.79, 4.11, 4.11, 4.74, 5.59, 5.01, 5.64, 4.47, 6.26, 9.39, 6.71, -2.21, -3.63, -0.0, -0.0, -0.0, 0.87, 1.8, 4.46, 6.06, 8.0, 7.41, 8.03, 8.06, 8.14, 6.71, 5.6, 4.8, 4.57, 4.57, 4.8, 5.2, 5.21, 7.06, 11.04, 11.6, 8.55, 8.06, 7.07, 3.63, 2.53, 4.24, 5.16, 5.16, 4.24, 5.09, 6.0, 6.51, 4.92, 3.58, 3.88, 4.27, 4.27, 4.17, 4.55, 4.55, 4.29, 4.65, 4.37, 4.71, 4.74, 5.06, 5.08, 6.01, 6.87, 7.44, 8.43, 8.91, 8.51, 9.21, 9.43, 10.47, 11.04, 11.57, 12.06, 12.06, 12.52, 12.52, 12.07, 11.18, 10.28, 8.03, 6.14, 2.68, 1.34, -0.0, -0.0, -0.0, -0.0, -0.0, -0.0, -0.0, -0.0, -0.0, -0.0, -0.0, 1.34, 2.24, 3.13, 3.2, 4.66, 4.8, 3.58, 1.58, -0.0, -0.0, 3.6, 7.71, 8.49, 1.8, -2.68, -1.8, -0.0, -0.0, -0.0, 1.6, 4.24, 5.2, 5.36, 5.69, 7.02, 8.67, 7.03, 3.6, -0.0, -0.0, 1.2, 2.0, 2.24, 2.68, 3.2, 4.81, 7.85, 9.34, 8.93, 9.04, 7.44, 3.79, 1.49, 4.0, 6.28, 6.0, 5.05, 4.93, 6.51, 5.75, 4.85, 4.85, 3.88, 4.27, 4.27, 4.55, 4.55, 4.55, 4.65, 4.65, 4.65, 4.71, 4.71, 5.35, 5.65, 5.69, 6.28, 7.44, 8.27, 8.68, 9.42, 9.7, 10.34, 10.81, 11.4, 11.95, 12.06, 12.52, 12.96, 13.41, 13.41, 12.96, 12.07, 10.71, 8.3, 5.7, 2.68, 0.8, 0.99, 1.74, -0.0, -0.0, -0.0, -0.0, -0.0, -1.4, -1.6, -1.8, -1.6, -1.4, -0.0, -0.0, 2.24, 1.9, 1.4, -0.0, -0.0, -0.0, 3.2, 5.81, 5.81, 1.27, -1.9, -1.9, -1.58, -0.0, -0.0, 2.24, 2.24, 2.8, 4.11, 5.93, 6.8, 8.01, 6.26, 2.0, -0.0, -0.0, 1.66, 2.41, 1.9, 2.24, 2.24, 2.98, 5.2, 6.7, 5.75, 4.66, 7.35, 5.2, 3.22, 4.22, 6.8, 4.43, 4.46, 6.79, 7.71, 6.54, 5.75, 5.75, 4.27, 4.27, 4.4, 4.8, 4.55, 4.55, 4.93, 4.65, 5.21, 4.94, 4.94, 5.01, 5.59, 5.98, 6.57, 7.15, 7.9, 8.68, 9.42, 9.7, 10.34, 11.37, 11.84, 12.02, 12.07, 12.96, 13.86, 14.3, 14.75, 14.3, 13.85, 12.46, 10.01, 7.74, 3.04, 1.79, 1.0, 1.4, -0.0, -0.0, -0.0, -0.0, -1.4, -1.2, -1.6, -2.53, -2.84, -3.2, -3.2, -1.4, -0.0, -0.0, -0.0, -0.0, 1.79, 1.79, 2.24, 1.9, -0.0, -1.9, -2.68, -2.68, -1.9, -1.9, -0.0, 0.95, 2.24, 1.34, 3.13, 7.5, 9.76, 7.03, 2.41, -1.34, -1.58, -0.0, 2.64, 4.16, 4.11, 4.0, 3.47, 3.47, 3.58, 3.84, 2.84, 1.26, 4.38, 3.58, 4.84, 7.42, 6.96, 4.07, 3.72, 5.72, 8.05, 7.28, 6.08, 6.08, 4.27, 4.27, 4.4, 4.8, 4.55, 4.93, 5.08, 4.84, 5.21, 5.21, 4.94, 5.29, 5.59, 5.93, 6.23, 6.79, 7.9, 8.68, 8.91, 9.86, 10.94, 11.84, 11.84, 11.61, 12.07, 12.96, 13.86, 14.29, 14.26, 14.7, 14.19, 12.75, 11.08, 7.81, 4.0, 2.4, 1.26, 0.89, -0.0, -1.6, -0.0, -2.21, -2.21, -1.9, -2.8, -2.8, -2.8, -3.2, -3.2, -3.2, -2.21, -0.0, -0.0, -0.0, 1.79, 1.79, -0.0, -0.0, -0.0, -2.68, -2.68, -2.68, -2.24, -1.4, -1.27, -0.0, -0.0, 2.21, 4.02, 9.2, 11.03, 5.43, 0.0, -1.34, -1.0, -0.0, 2.64, 5.89, 7.41, 6.82, 6.16, 6.26, 5.09, 2.41, 0.0, 0.0, 2.76, 3.48, 5.77, 7.35, 7.81, 5.06, 3.55, 5.21, 7.02, 7.06, 6.06, 6.06, 4.27, 4.27, 4.4, 4.8, 4.8, 5.08, 5.08, 5.47, 5.21, 5.21, 5.58, 5.29, 5.49, 5.93, 5.65, 7.06, 6.79, 7.61, 7.81, 9.11, 10.94, 12.04, 10.91, 10.25, 10.14, 11.84, 10.47, 12.14, 12.58, 12.04, 12.51, 12.46, 10.91, 8.28, 5.29, 2.84, 1.61, 0.0, -1.79, -3.13, -2.0, -2.0, -2.68, -2.68, -3.13, -3.13, -3.13, -3.2, -3.2, -2.8, -2.21, -1.9, -0.0, -0.0, -0.0, -0.0, 1.79, 1.79, -2.24, -2.68, -2.68, -2.24, -1.9, -1.8, -1.83, -1.83, -0.0, 2.97, 6.18, 10.05, 11.18, 10.93, 10.95, 9.33, 7.42, 5.09, 5.29, 6.98, 9.06, 9.11, 8.46, 7.6, 4.6, 1.49, 0.0, 0.88, 2.4, 4.43, 6.64, 6.64, 7.41, 6.73, 5.49, 4.28, 5.76, 6.64, 6.24, 6.24, 4.27, 4.4, 4.4, 4.8, 4.9, 5.08, 5.08, 5.47, 5.21, 5.21, 5.75, 5.49, 5.49, 5.86, 6.15, 6.51, 6.23, 6.51, 6.44, 8.4, 11.09, 11.41, 10.3, 9.67, 9.0, 9.67, 10.23, 9.88, 10.91, 11.21, 11.39, 11.33, 9.71, 7.76, 5.29, 3.48, 2.79, 1.86, 0.45, 0.0, -0.89, -0.89, -1.34, -1.79, -1.34, -3.13, -3.13, -3.2, -3.2, -3.2, -2.53, -1.6, -1.6, -0.0, -0.0, -0.0, 1.34, 0.45, -0.89, -2.24, -2.24, -2.68, -2.84, -2.73, -1.66, -1.8, -0.99, 2.4, 6.26, 8.8, 10.95, 13.89, 16.03, 15.78, 13.86, 11.84, 9.2, 8.06, 10.02, 10.25, 9.83, 9.39, 5.29, 0.0, -1.74, 0.0, 0.89, 1.79, 5.09, 5.06, 5.89, 7.59, 6.7, 4.07, 4.2, 5.9, 5.9, 5.9, 4.27, 4.4, 4.4, 4.8, 4.9, 5.08, 5.08, 5.47, 5.6, 5.37, 5.75, 5.75, 5.49, 5.86, 6.15, 6.51, 6.23, 6.23, 6.01, 7.97, 10.29, 9.76, 9.5, 9.02, 9.59, 10.04, 10.16, 10.21, 10.21, 10.49, 11.08, 10.66, 9.21, 6.8, 4.29, 3.16, 3.43, 3.6, 2.97, 2.12, 0.0, -0.45, -1.79, -1.79, -1.79, -3.13, -3.58, -3.2, -3.2, -2.84, -2.84, -2.84, -1.6, -1.6, -0.0, -0.0, 1.34, 0.0, 0.0, 1.79, 1.79, -2.8, -3.72, -3.72, -1.98, -1.9, -1.0, 1.2, 4.54, 6.79, 8.65, 11.88, 14.83, 15.47, 13.21, 11.44, 8.38, 8.66, 8.93, 9.65, 10.02, 9.8, 6.71, 0.0, -2.68, -1.26, -0.0, 1.26, 4.02, 4.84, 6.32, 7.82, 7.08, 4.2, 3.61, 4.2, 5.04, 5.04, 4.27, 4.4, 4.8, 4.8, 4.9, 5.31, 5.08, 5.6, 5.6, 5.6, 5.75, 5.75, 6.13, 5.86, 6.41, 6.51, 6.79, 6.87, 7.51, 8.78, 9.76, 9.48, 8.82, 9.1, 9.76, 10.68, 11.21, 11.56, 11.28, 10.96, 10.94, 10.94, 9.57, 6.79, 4.0, 3.16, 3.16, 4.0, 4.4, 4.11, 2.68, 0.95, -0.63, -1.34, -1.79, -1.79, -3.58, -3.2, -3.6, -3.6, -2.84, -2.84, -2.84, -1.6, -0.0, -0.0, 1.34, 0.89, 0.0, 0.0, 0.45, -1.2, -2.84, -2.84, -1.74, -0.85, -0.0, -0.0, 1.98, 2.49, 3.52, 9.17, 13.1, 12.14, 4.56, 5.77, 7.16, 7.16, 7.03, 7.8, 9.04, 9.08, 8.33, 4.38, 1.34, 0.45, 0.45, 2.0, 5.05, 6.64, 7.27, 7.85, 6.92, 3.69, 2.26, 2.99, 4.0, 4.0, 4.27, 4.27, 4.4, 4.8, 4.9, 5.31, 5.08, 5.6, 5.6, 6.0, 5.75, 5.75, 6.28, 6.28, 6.03, 6.51, 6.79, 7.44, 8.08, 9.21, 10.16, 10.42, 9.51, 9.42, 9.71, 10.21, 11.33, 12.04, 12.18, 12.3, 12.39, 11.95, 11.04, 8.21, 5.31, 3.43, 3.43, 4.0, 4.55, 5.08, 4.8, 3.6, 1.86, 0.0, -0.89, -1.2, -3.13, -3.2, -3.82, -3.35, -3.16, -2.84, -2.84, -1.27, -0.0, -0.0, -0.0, -0.0, 1.79, 1.0, 0.89, -1.0, -0.87, -0.87, -0.87, -0.0, -0.0, -0.0, 1.26, -0.0, -0.0, 4.11, 10.14, 3.13, -1.27, 0.0, 3.53, 4.94, 5.81, 6.27, 6.29, 7.64, 7.42, 6.16, 3.58, 0.99, 0.99, 2.53, 5.37, 6.11, 7.27, 5.86, 4.43, 1.9, 0.87, 3.0, 4.14, 4.14, 4.27, 4.27, 4.4, 4.8, 4.9, 5.31, 5.31, 5.6, 5.6, 6.0, 6.0, 5.89, 6.28, 6.28, 6.41, 6.41, 7.07, 7.72, 8.0, 8.93, 9.88, 10.62, 10.49, 10.6, 10.0, 10.42, 10.91, 11.39, 12.04, 12.64, 13.21, 13.21, 12.31, 10.47, 7.51, 5.6, 4.55, 4.0, 4.55, 5.08, 5.6, 5.31, 4.27, 2.68, 1.2, -0.45, -2.68, -3.13, -3.82, -4.09, -3.48, -2.73, -2.48, -2.48, -1.41, -1.41, -0.98, -0.85, 1.34, 2.24, 0.0, -1.34, -1.2, -0.87, -0.88, -0.0, 0.98, 1.4, 2.24, 1.34, 0.0, 10.18, 12.04, 7.6, 0.89, -1.41, 0.0, 2.17, 4.15, 5.1, 5.68, 6.44, 6.64, 5.72, 4.11, 1.55, 0.82, 2.64, 3.22, 1.2, 3.63, 0.85, 0.0, 0.45, 0.85, 3.11, 3.69, 3.69, 4.27, 4.27, 4.4, 4.8, 4.8, 4.9, 5.31, 5.6, 5.6, 6.0, 6.0, 5.89, 6.28, 6.28, 6.41, 6.56, 6.7, 7.61, 8.27, 8.82, 9.35, 10.0, 10.71, 11.33, 10.91, 10.91, 10.91, 10.91, 11.99, 12.46, 12.64, 13.1, 13.21, 11.71, 9.39, 7.51, 6.1, 5.6, 5.08, 5.6, 5.6, 5.6, 5.6, 4.9, 3.6, 1.7, 0.45, -1.79, -3.07, -3.35, -3.48, -3.76, -3.79, -2.73, -2.48, -2.73, -1.3, -1.8, -0.0, 2.24, 2.24, 0.45, -1.9, -0.88, -0.81, -0.0, 0.88, 1.8, 2.21, 1.0, 3.79, 8.3, 12.47, 12.49, 11.59, 7.11, 2.23, 0.79, 2.12, 3.06, 5.0, 5.54, 6.44, 5.94, 4.29, 1.55, 0.0, 0.88, 0.0, -2.24, -2.68, -1.79, 0.45, 1.79, 2.21, 3.07, 2.98, 2.98, 4.27, 4.27, 4.4, 4.8, 4.8, 4.9, 5.31, 5.81, 5.6, 6.0, 6.1, 6.51, 6.28, 6.67, 6.8, 6.95, 6.95, 7.23, 8.15, 8.43, 8.96, 9.88, 10.4, 11.12, 11.21, 11.33, 10.91, 11.33, 11.56, 12.04, 12.04, 12.64, 13.1, 12.18, 10.34, 8.3, 7.31, 7.01, 6.6, 6.1, 6.3, 6.1, 6.1, 5.6, 5.4, 4.11, 2.4, 0.6, -0.89, -2.15, -3.48, -4.11, -4.47, -3.76, -3.49, -2.6, -2.6, -2.2, -1.4, -0.0, 2.68, 1.9, -0.0, -0.96, -0.0, -0.0, -0.0, 0.98, -0.0, 1.26, 3.16, 7.2, 10.25, 13.83, 14.55, 13.78, 11.42, 6.54, 2.47, 2.54, 4.07, 5.62, 6.44, 5.59, 3.64, 1.83, 0.0, -1.26, -2.24, -2.24, -1.9, 0.89, 1.49, 2.15, 2.41, 2.68, 2.41, 2.41, 4.27, 4.27, 4.4, 4.8, 4.8, 4.9, 5.31, 5.31, 5.6, 6.0, 6.1, 6.51, 6.28, 6.67, 6.8, 6.95, 6.95, 7.48, 7.61, 8.15, 8.82, 9.35, 10.4, 10.91, 11.12, 11.12, 11.33, 11.39, 11.56, 11.56, 12.04, 12.18, 12.18, 12.75, 11.71, 10.18, 8.72, 8.0, 8.22, 8.22, 8.0, 8.0, 7.69, 6.79, 6.3, 5.81, 4.9, 4.11, 2.4, 0.45, -1.58, -3.49, -4.45, -4.45, -4.29, -3.63, -2.4, -2.73, -0.87, -0.0, -0.0, 1.2, -0.0, -0.0, -0.0, -0.0, -0.0, -0.0, -0.0, 1.79, 2.84, 5.43, 8.63, 10.73, 11.84, 13.29, 15.01, 11.6, 4.16, 0.8, 2.47, 4.4, 5.7, 5.59, 4.65, 2.3, 0.0, -2.68, -2.24, -2.0, -1.58, 0.0, 2.0, 2.53, 2.3, 2.3, 2.41, 2.41, 4.27, 4.27, 4.4, 4.8, 4.8, 4.9, 5.31, 5.31, 5.81, 6.1, 6.1, 6.51, 6.28, 6.8, 6.8, 7.2, 7.08, 7.48, 7.48, 7.76, 8.28, 8.96, 9.88, 10.4, 11.12, 11.12, 11.12, 10.71, 11.33, 11.56, 11.56, 12.18, 12.18, 12.75, 12.3, 10.81, 9.21, 8.51, 8.51, 8.51, 8.72, 8.3, 8.0, 7.74, 7.87, 7.52, 7.87, 6.3, 5.4, 3.7, 1.34, -1.24, -3.49, -4.75, -4.74, -4.43, -3.79, -2.73, -1.8, -2.23, -2.98, -0.99, -0.0, 0.96, 0.79, 1.27, 1.79, 1.34, 0.89, 1.79, 3.47, 5.75, 7.35, 7.35, 8.8, 11.52, 14.66, 12.04, 3.35, -0.78, 0.77, 3.49, 5.06, 4.87, 2.3, -0.8, -3.04, -3.13, -1.79, -1.79, -1.79, 1.34, 0.98, 1.55, 1.47, 2.4, 2.2, 2.2, 4.27, 4.27, 4.4, 4.8, 4.8, 4.9, 5.31, 5.31, 5.81, 5.6, 6.1, 6.51, 6.28, 6.8, 6.8, 7.2, 7.31, 7.48, 7.48, 8.0, 8.0, 8.68, 9.48, 10.62, 10.71, 10.71, 10.62, 10.62, 10.91, 11.08, 11.56, 11.74, 12.18, 12.64, 12.31, 11.71, 10.12, 8.91, 8.91, 8.91, 9.01, 8.72, 7.81, 8.3, 7.89, 7.13, 8.42, 9.11, 8.72, 6.51, 4.6, 1.79, -1.2, -3.49, -4.74, -4.37, -4.43, -3.49, -2.76, -4.11, -4.6, -2.84, -0.99, -0.0, 0.98, 2.0, 1.98, 1.79, 0.0, 0.0, 3.58, 6.65, 8.33, 8.4, 9.0, 10.91, 12.23, 10.68, 4.0, -0.99, 0.0, 2.3, 4.63, 3.6, 0.0, -2.6, -2.68, -2.97, -2.68, -2.24, -1.9, -1.26, 0.0, 0.73, 0.76, 2.04, 2.29, 2.29, 4.4, 4.4, 4.4, 4.4, 4.8, 4.8, 5.31, 5.31, 5.81, 5.6, 6.1, 6.51, 6.51, 6.8, 6.8, 7.2, 7.31, 7.48, 7.48, 8.0, 8.0, 8.28, 8.91, 9.2, 10.21, 10.62, 10.62, 10.42, 10.42, 10.6, 11.08, 11.56, 12.18, 12.64, 12.64, 12.18, 10.66, 9.01, 8.51, 8.91, 9.01, 8.91, 8.51, 7.71, 6.51, 7.89, 9.54, 8.72, 8.4, 7.34, 5.86, 5.08, 1.34, -1.2, -4.07, -5.29, -5.21, -4.65, -5.15, -5.15, -5.75, -3.9, -1.26, -1.26, -0.0, 0.81, 0.88, 2.84, 2.24, 1.9, 2.98, 5.81, 9.83, 11.59, 11.6, 11.9, 11.54, 10.63, 6.7, 1.58, 0.0, 1.73, 3.52, 2.92, -0.54, -3.32, -3.95, -2.68, -3.58, -3.47, -2.6, -1.9, -0.45, 0.0, 0.72, 1.45, 2.12, 2.12, 4.4, 4.4, 4.4, 4.4, 4.8, 4.8, 5.31, 5.31, 5.81, 5.6, 6.1, 6.1, 6.51, 6.8, 6.8, 7.2, 7.31, 7.71, 7.48, 8.0, 8.0, 8.0, 8.51, 9.01, 9.92, 10.42, 10.42, 9.92, 10.12, 10.18, 11.08, 11.56, 12.04, 12.46, 12.51, 12.64, 11.13, 9.7, 8.51, 8.51, 8.91, 9.01, 8.91, 8.0, 6.95, 8.05, 9.03, 8.0, 6.41, 5.21, 4.65, 4.65, 4.0, 0.89, -1.61, -4.07, -5.75, -5.75, -5.6, -6.7, -5.59, -4.02, -2.68, -1.0, -0.0, -0.0, -0.0, 1.6, 4.92, 4.77, 2.97, 3.13, 6.65, 12.42, 14.73, 14.17, 12.89, 10.29, 9.2, 6.4, 1.6, 0.0, 2.29, 2.26, 0.0, -2.68, -3.87, -4.85, -4.41, -4.24, -3.83, -3.2, -2.0, 0.0, 0.67, 0.79, 1.4, 1.4, 4.4, 4.4, 4.4, 4.4, 4.8, 4.8, 4.9, 5.31, 5.81, 5.6, 6.1, 6.1, 6.51, 6.8, 6.8, 7.2, 7.31, 7.31, 7.71, 7.81, 8.22, 8.0, 8.51, 8.91, 9.42, 9.51, 9.51, 9.01, 10.01, 9.7, 10.91, 11.39, 11.81, 11.87, 12.46, 12.46, 11.71, 10.18, 9.01, 8.51, 8.51, 9.01, 8.91, 8.28, 8.28, 8.82, 9.35, 8.72, 6.72, 4.4, 3.72, 3.88, 4.27, 3.72, 2.49, -1.9, -4.0, -5.6, -6.3, -6.16, -5.36, -4.02, -2.0, -0.85, -0.0, -0.88, -1.83, -0.0, 3.58, 4.92, 2.0, 0.45, 3.13, 10.73, 16.52, 16.37, 10.87, 7.27, 8.03, 9.05, 5.09, 0.0, 0.0, 1.7, 1.19, -1.4, -3.13, -3.98, -4.82, -4.0, -4.09, -3.83, -3.2, -1.34, 0.0, 0.78, 0.74, 0.74, 4.4, 4.4, 4.4, 4.4, 4.8, 4.8, 4.9, 5.31, 5.81, 5.6, 6.0, 6.1, 6.51, 6.6, 6.8, 6.8, 7.31, 7.31, 7.71, 7.81, 8.22, 8.22, 8.51, 8.51, 9.01, 9.63, 9.63, 9.01, 9.01, 10.55, 9.71, 10.21, 10.91, 11.33, 11.56, 12.04, 12.18, 10.66, 9.21, 8.72, 8.1, 8.51, 8.51, 8.51, 8.68, 9.6, 9.71, 9.7, 8.21, 6.47, 4.6, 4.11, 4.11, 3.6, 3.2, 2.6, 1.34, -3.6, -5.09, -5.26, -4.44, -2.54, -1.4, -0.98, -1.7, -1.72, -2.29, -1.8, -0.0, 2.21, 0.85, 1.34, 1.2, 7.35, 15.57, 18.31, 9.11, 0.0, 1.55, 6.32, 7.06, 3.74, 1.58, 2.21, 2.51, 1.33, 0.0, -1.34, -2.4, -3.6, -4.22, -3.84, -3.45, -2.54, -1.26, 0.0, 0.0, 0.0, 4.4, 4.4, 4.4, 4.4, 4.8, 4.8, 4.9, 5.31, 5.4, 5.6, 6.0, 6.1, 6.51, 6.6, 6.8, 6.8, 7.2, 7.31, 7.31, 7.71, 7.81, 8.22, 8.72, 8.72, 9.21, 9.21, 9.21, 9.42, 9.71, 9.71, 9.92, 9.92, 10.0, 10.6, 11.08, 11.13, 11.71, 11.28, 9.7, 8.72, 8.22, 8.3, 8.72, 8.51, 8.51, 9.01, 9.51, 10.12, 9.43, 8.64, 7.21, 5.81, 4.6, 3.7, 3.2, 2.91, 2.63, 2.24, -1.86, -2.68, -3.72, -2.84, -2.48, -2.4, -2.4, -2.6, -2.6, -2.76, -2.84, -0.0, -0.0, -0.0, 4.24, 8.05, 13.91, 17.81, 12.49, 2.24, 0.0, 2.86, 6.36, 6.79, 5.16, 4.41, 4.85, 4.6, 4.11, 3.32, 2.68, -0.0, -2.6, -3.58, -3.45, -2.8, -1.79, 0.0, 0.0, 0.0, 4.4, 4.4, 4.4, 4.4, 4.8, 4.8, 4.9, 5.31, 5.31, 5.6, 6.0, 6.1, 6.51, 6.51, 7.01, 6.8, 7.2, 7.31, 7.31, 7.71, 7.81, 8.22, 8.22, 8.72, 9.13, 9.21, 9.21, 9.51, 9.92, 9.92, 9.92, 9.92, 10.12, 10.18, 10.6, 10.66, 11.24, 11.24, 10.34, 9.21, 8.3, 8.22, 8.42, 8.48, 8.48, 8.72, 9.21, 9.7, 9.7, 9.21, 8.3, 7.51, 6.3, 5.09, 4.11, 3.39, 3.09, 2.68, 2.68, 1.49, -1.84, -2.73, -2.98, -2.4, -2.73, -2.73, -2.68, -2.68, -1.98, -0.99, -0.0, 1.6, 6.71, 9.97, 12.37, 14.67, 15.47, 13.29, 9.72, 7.55, 6.64, 6.32, 6.94, 5.86, 5.77, 6.23, 6.6, 6.65, 5.81, 4.92, 2.0, -1.0, -2.98, -2.6, -1.6, -0.8, 0.0, 0.0, 4.4, 4.4, 4.4, 4.4, 4.8, 4.8, 4.9, 5.31, 5.31, 5.6, 5.6, 6.1, 6.51, 6.51, 6.6, 6.8, 6.8, 7.31, 7.31, 7.71, 7.81, 8.22, 8.22, 8.72, 8.72, 9.21, 9.21, 9.51, 9.51, 9.51, 9.51, 9.92, 10.12, 10.18, 10.18, 10.6, 10.66, 10.81, 10.34, 9.21, 8.3, 7.81, 8.0, 7.74, 8.3, 8.64, 9.39, 9.7, 9.7, 9.7, 8.51, 8.22, 7.31, 6.3, 5.57, 4.77, 3.98, 3.58, 3.13, 2.4, 1.61, -1.6, -3.79, -3.48, -2.41, -1.8, -1.13, -1.6, -1.6, -0.99, -0.0, 0.99, 6.23, 10.28, 11.6, 11.96, 12.94, 14.11, 15.57, 14.74, 10.6, 6.7, 5.09, 4.46, 5.64, 7.12, 7.56, 7.55, 7.15, 6.71, 5.36, 2.24, -1.26, -2.4, -1.6, -0.89, 0.0, 0.0, 4.4, 4.4, 4.4, 4.8, 4.8, 4.8, 4.9, 5.31, 5.31, 5.6, 5.6, 6.1, 6.1, 6.51, 6.6, 7.01, 6.8, 7.2, 7.31, 7.31, 7.71, 8.22, 8.22, 8.3, 8.72, 9.01, 9.01, 9.51, 9.51, 9.51, 9.51, 9.51, 9.92, 10.0, 10.18, 10.6, 10.6, 10.81, 10.77, 9.7, 8.72, 7.71, 7.21, 7.89, 7.51, 8.33, 9.39, 9.7, 10.12, 9.51, 8.91, 8.0, 7.31, 7.01, 6.3, 5.57, 5.24, 4.44, 3.58, 3.53, 2.91, 1.49, -2.48, -2.95, -2.0, -1.27, -0.98, -0.88, -0.79, -0.0, -0.0, -0.0, 4.11, 10.96, 12.96, 11.4, 10.93, 12.74, 15.47, 15.83, 12.66, 6.8, 3.07, 2.15, 3.83, 6.07, 6.67, 7.15, 7.15, 7.15, 6.71, 4.92, 1.79, 0.89, -1.34, 0.45, 0.0, 0.0, 4.27, 4.27, 4.4, 4.8, 4.8, 4.8, 4.9, 5.31, 5.08, 5.6, 5.6, 6.0, 6.1, 6.51, 6.51, 7.01, 6.8, 7.2, 7.31, 7.31, 7.71, 7.81, 8.22, 8.22, 8.51, 8.51, 9.01, 9.42, 9.51, 9.51, 9.51, 9.51, 9.51, 9.92, 10.0, 10.18, 10.6, 10.6, 10.81, 10.18, 8.72, 7.31, 6.1, 6.51, 7.13, 8.79, 9.86, 10.42, 10.21, 9.71, 8.68, 7.48, 6.8, 6.4, 6.51, 6.3, 5.99, 5.7, 4.47, 4.02, 3.53, 2.91, 1.6, -1.8, -1.8, -1.55, -1.3, -0.88, -0.0, 0.99, 1.0, -0.0, 3.72, 10.16, 14.73, 12.52, 10.25, 11.62, 13.84, 14.61, 13.12, 9.62, 5.05, 1.74, 1.6, 3.58, 5.81, 6.26, 7.15, 7.6, 7.15, 6.26, 4.02, 1.34, 0.0, 0.0, 0.95, 0.0, 4.27, 4.27, 4.4, 4.8, 4.8, 4.8, 4.8, 5.31, 5.08, 5.47, 5.6, 6.0, 6.1, 6.51, 6.51, 7.01, 6.8, 6.8, 7.31, 7.31, 7.71, 7.81, 8.22, 8.22, 8.51, 8.51, 9.01, 9.42, 9.51, 9.51, 9.51, 9.51, 9.51, 9.51, 9.92, 10.12, 10.18, 10.18, 10.6, 10.18, 9.21, 7.71, 5.75, 4.65, 7.35, 9.39, 10.71, 10.68, 10.16, 9.35, 8.15, 6.95, 6.28, 6.51, 6.51, 6.3, 6.04, 5.7, 5.33, 4.47, 4.47, 3.53, 1.9, -0.0, -1.55, -2.73, -2.0, -0.0, -0.0, 1.98, 1.9, -0.0, 3.13, 8.05, 12.75, 13.05, 12.05, 11.66, 12.15, 11.99, 11.28, 10.05, 6.55, 3.47, 1.79, 3.13, 4.41, 6.21, 7.15, 7.6, 7.6, 7.6, 6.26, 3.47, 1.0, 1.0, 1.58, 0.95, 4.27, 4.27, 4.4, 4.4, 4.8, 4.8, 4.8, 5.08, 5.08, 5.08, 5.6, 5.6, 6.0, 6.1, 6.51, 6.6, 6.8, 6.8, 7.31, 7.31, 7.71, 7.71, 8.22, 8.0, 8.1, 8.51, 8.91, 9.01, 9.42, 9.51, 9.51, 9.51, 9.51, 9.51, 9.51, 9.51, 10.12, 10.12, 10.18, 10.6, 9.7, 8.22, 6.03, 5.01, 5.98, 9.67, 10.55, 10.3, 9.21, 8.0, 6.7, 6.28, 6.51, 6.1, 6.1, 6.3, 6.3, 5.57, 5.24, 4.89, 4.47, 4.02, 3.82, -0.0, -1.27, -1.41, -0.87, -0.0, 0.99, 1.98, 1.74, -0.0, 2.24, 4.47, 7.97, 12.51, 15.31, 15.2, 11.23, 6.44, 4.46, 5.16, 6.26, 4.92, 4.02, 4.47, 5.81, 7.15, 8.05, 8.49, 8.49, 8.94, 8.49, 5.75, 2.98, 1.74, 2.53, 2.53, 4.27, 4.27, 4.27, 4.4, 4.8, 4.8, 4.55, 5.08, 5.08, 5.08, 5.47, 5.6, 6.0, 6.1, 6.51, 6.51, 6.8, 6.8, 6.8, 7.31, 7.31, 7.71, 7.81, 8.0, 8.0, 8.51, 8.51, 9.01, 9.42, 9.42, 9.51, 9.42, 9.51, 9.51, 9.51, 9.51, 9.51, 9.7, 10.12, 10.18, 10.12, 8.72, 6.95, 6.51, 7.21, 9.21, 10.55, 9.63, 7.9, 6.7, 5.86, 5.75, 6.28, 6.51, 6.51, 6.3, 5.99, 5.57, 5.26, 5.33, 4.88, 4.47, 3.58, 2.8, -0.0, -1.41, -0.0, -0.0, 0.87, 0.87, -0.0, -0.0, 1.79, 2.97, 5.64, 9.76, 13.86, 16.47, 13.39, 6.21, 0.6, 2.6, 5.36, 6.71, 6.71, 7.15, 7.6, 8.05, 8.94, 9.39, 9.83, 9.81, 9.81, 8.9, 3.58, 3.58, 3.58, 3.58, 4.27, 4.27, 4.27, 4.4, 4.8, 4.55, 4.55, 5.08, 5.08, 5.08, 5.47, 5.6, 6.0, 6.1, 6.51, 6.28, 6.8, 6.8, 6.8, 7.31, 7.31, 7.71, 7.81, 8.0, 8.0, 8.51, 8.51, 8.91, 9.01, 9.42, 9.42, 9.42, 9.42, 9.51, 9.51, 9.51, 9.51, 9.51, 9.7, 10.12, 10.12, 9.21, 7.48, 6.7, 7.35, 9.1, 10.21, 9.51, 7.81, 6.51, 5.6, 5.75, 5.75, 6.51, 6.51, 6.51, 5.88, 5.57, 5.57, 5.24, 4.89, 4.47, 4.02, 3.58, -0.0, -0.0, -0.0, -0.0, -0.0, -0.0, -0.0, -1.0, 0.89, 2.97, 4.8, 7.35, 11.06, 14.28, 15.78, 13.49, 9.33, 7.98, 8.67, 8.91, 8.94, 8.49, 8.8, 8.36, 8.8, 9.26, 9.72, 10.16, 10.16, 8.36, 6.02, 4.22, 4.22, 4.22, 4.0, 4.0, 4.27, 4.27, 4.55, 4.55, 4.55, 4.55, 5.08, 5.08, 5.08, 5.6, 5.6, 6.0, 6.51, 6.28, 6.8, 6.8, 6.8, 7.31, 7.31, 7.71, 7.71, 8.0, 8.0, 8.4, 8.51, 8.91, 9.01, 9.01, 9.42, 9.42, 9.42, 9.42, 9.51, 9.51, 9.42, 9.42, 9.42, 9.7, 10.12, 9.63, 8.0, 7.07, 7.15, 8.43, 9.2, 9.63, 8.48, 7.26, 6.3, 5.81, 5.81, 5.81, 6.3, 6.3, 6.3, 5.99, 5.57, 5.24, 4.8, 4.44, 4.47, 3.58, 2.21, -0.0, -0.0, -0.0, -0.0, -1.66, -1.41, -0.99, -0.0, 1.79, 3.47, 4.82, 7.15, 11.18, 13.67, 14.17, 13.87, 14.1, 14.11, 12.66, 10.7, 8.94, 7.01, 7.63, 7.47, 8.14, 8.67, 8.67, 9.54, 9.24, 7.89, 6.02, 6.02, 6.02, 3.64, 3.64, 4.27, 4.27, 4.55, 4.55, 4.55, 4.55, 5.08, 5.08, 5.08, 5.47, 5.6, 6.0, 6.1, 6.28, 6.28, 6.8, 6.8, 7.2, 7.31, 7.31, 7.71, 7.6, 8.0, 8.0, 8.51, 8.51, 8.91, 9.01, 9.01, 9.42, 9.42, 9.42, 9.42, 9.42, 9.42, 9.42, 9.42, 9.42, 9.7, 9.7, 8.51, 7.23, 7.07, 7.9, 8.68, 9.01, 8.3, 7.51, 6.79, 5.81, 5.57, 5.57, 5.99, 6.04, 5.99, 5.57, 5.7, 5.24, 5.33, 4.88, 4.47, 4.02, 2.4, -0.0, -0.0, -0.0, -0.98, -2.53, -2.84, -1.74, -1.2, -0.0, 1.34, 2.0, 4.38, 8.01, 10.45, 9.65, 10.9, 14.07, 16.03, 14.31, 11.71, 9.74, 8.05, 7.45, 6.8, 6.8, 7.74, 7.71, 8.63, 9.06, 8.14, 6.51, 6.51, 6.51, 3.43, 3.43, 4.0, 4.0, 4.0, 4.55, 4.55, 4.55, 4.93, 5.08, 5.08, 5.47, 5.6, 6.0, 5.89, 6.28, 6.28, 6.8, 6.8, 7.2, 7.31, 7.31, 7.71, 7.48, 8.0, 8.0, 8.4, 8.51, 8.91, 8.91, 9.01, 9.42, 9.42, 9.42, 9.42, 9.42, 9.42, 9.42, 9.01, 9.01, 9.51, 9.51, 9.01, 8.0, 7.07, 7.35, 8.15, 8.28, 8.0, 7.31, 6.51, 5.81, 5.57, 5.7, 5.7, 5.78, 5.78, 5.34, 5.33, 5.33, 5.36, 4.92, 4.92, 3.98, 3.07, 1.8, -0.0, -0.0, -1.6, -1.0, -1.74, -0.85, -1.2, -1.0, -0.0, 1.0, 3.6, 6.28, 7.82, 7.02, 9.04, 13.23, 15.84, 14.35, 13.15, 12.33, 11.62, 10.26, 9.24, 6.4, 6.8, 6.94, 7.35, 8.14, 7.28, 6.51, 6.51, 6.51, 3.43, 3.43, 3.64, 4.0, 4.0, 4.55, 4.55, 4.55, 4.55, 5.08, 5.08, 5.47, 5.6, 6.0, 5.75, 6.28, 6.28, 6.8, 6.8, 6.8, 7.2, 7.31, 7.71, 7.48, 8.0, 8.0, 8.0, 8.51, 8.51, 8.91, 8.91, 9.01, 9.42, 9.42, 9.42, 9.42, 9.42, 9.01, 9.01, 9.01, 9.42, 9.51, 9.01, 8.4, 7.23, 7.07, 7.61, 8.15, 7.48, 7.2, 6.28, 6.0, 5.57, 5.7, 5.78, 5.78, 5.36, 5.36, 4.92, 4.92, 4.92, 4.92, 4.88, 4.3, 3.14, 2.84, 1.6, -0.0, -0.0, -0.0, -0.0, -0.0, -0.85, -0.0, -0.0, 0.99, 2.84, 4.54, 5.37, 6.39, 8.43, 11.87, 13.64, 13.74, 14.77, 14.03, 12.52, 10.7, 7.71, 6.0, 5.82, 5.43, 5.75, 6.02, 6.02, 5.31, 5.31, 5.31, 3.43, 3.43, 3.72, 4.0, 4.0, 4.0, 4.55, 4.55, 4.55, 5.08, 5.08, 5.47, 5.6, 5.75, 5.75, 6.28, 6.28, 6.67, 6.8, 6.8, 7.2, 7.31, 7.48, 7.48, 7.48, 8.0, 8.0, 8.4, 8.51, 8.91, 8.91, 8.91, 9.01, 9.42, 9.42, 9.42, 9.42, 9.01, 9.01, 9.01, 9.01, 9.42, 9.42, 8.51, 7.48, 7.07, 7.61, 7.61, 7.48, 6.95, 6.28, 6.1, 5.81, 5.99, 6.23, 5.78, 5.81, 5.36, 4.92, 4.92, 4.88, 4.88, 4.34, 3.7, 3.14, 2.53, 0.99, 0.99, 1.2, 1.58, -0.0, -0.0, -0.99, -0.99, -0.0, 0.99, 1.8, 2.53, 3.47, 5.77, 7.89, 9.49, 10.28, 13.04, 15.27, 14.93, 7.15, 5.64, 5.86, 5.86, 4.4, 3.22, 3.39, 3.58, 4.02, 4.47, 4.47, 4.47, 3.43, 3.43, 3.72, 3.88, 4.0, 4.0, 4.55, 4.55, 4.55, 4.93, 5.08, 5.47, 5.47, 5.75, 5.75, 6.28, 6.28, 6.67, 6.8, 6.8, 7.2, 6.95, 7.08, 7.48, 7.48, 8.0, 8.0, 8.4, 8.4, 8.28, 8.68, 8.68, 8.68, 8.8, 9.01, 9.01, 9.01, 9.01, 8.91, 8.91, 8.91, 9.01, 9.42, 8.91, 8.0, 7.07, 7.07, 7.23, 7.23, 6.95, 6.41, 6.28, 6.1, 6.47, 6.6, 6.23, 6.23, 5.36, 4.92, 4.92, 4.88, 4.44, 4.3, 3.6, 3.07, 2.6, 1.2, 0.85, 0.99, 1.9, 2.0, 1.34, 1.34, -1.2, -0.85, -0.0, 0.87, 1.8, 2.68, 4.84, 6.7, 6.94, 8.0, 11.37, 14.87, 9.81, 1.0, -1.79, 0.95, 4.41, 4.85, 2.0, 0.89, 1.26, 2.54, 3.13, 3.13, 3.13, 3.43, 3.35, 3.72, 3.88, 4.0, 4.0, 4.17, 4.55, 4.55, 4.93, 5.08, 5.47, 5.21, 5.37, 5.75, 5.75, 6.28, 6.28, 6.67, 6.8, 6.56, 6.95, 7.08, 7.48, 7.48, 7.87, 8.0, 8.0, 8.4, 8.28, 8.28, 8.68, 8.68, 8.68, 8.68, 9.01, 9.01, 8.91, 8.91, 8.91, 8.51, 9.01, 9.01, 9.01, 8.4, 7.48, 6.7, 7.07, 7.07, 6.7, 6.41, 5.86, 6.13, 6.3, 6.94, 7.06, 6.68, 5.78, 5.36, 4.92, 4.92, 4.92, 4.43, 3.39, 2.91, 2.4, 1.58, -0.0, -0.0, 1.0, 1.58, 1.79, 1.26, -0.0, -0.85, -0.0, -0.0, 0.99, 1.98, 4.57, 6.02, 6.16, 6.94, 10.7, 15.2, 8.94, -1.4, -4.46, -2.0, 1.79, 4.02, 2.24, -0.0, -0.0, 1.0, 1.58, 1.58, 1.58, 3.35, 3.35, 3.72, 3.72, 4.0, 4.0, 4.0, 4.55, 4.55, 4.93, 5.08, 5.47, 5.21, 5.37, 5.75, 5.75, 6.28, 6.28, 6.67, 6.8, 6.56, 6.95, 6.95, 7.48, 7.48, 7.48, 8.0, 8.0, 8.15, 8.15, 8.28, 8.28, 8.68, 8.68, 8.68, 8.68, 8.91, 8.91, 8.91, 8.51, 8.51, 8.91, 9.01, 9.01, 8.51, 7.48, 6.95, 6.7, 6.7, 6.51, 5.93, 5.86, 5.49, 6.0, 6.51, 6.94, 7.06, 6.6, 5.78, 5.36, 4.92, 4.92, 4.47, 3.58, 3.09, 2.68, 1.79, -0.0, -0.0, -0.0, 1.34, 1.34, 1.79, 1.0, -0.0, -0.0, -0.0, 1.2, 2.97, 4.02, 4.85, 5.51, 7.11, 14.67, 15.95, 9.74, -0.0, -3.72, -1.6, -0.0, 2.54, 2.54, -0.0, -0.0, -0.0, -0.0, -0.0, -0.0, 3.14, 3.14, 3.72, 3.72, 3.64, 4.0, 4.0, 4.55, 4.55, 4.93, 5.08, 5.21, 5.21, 5.21, 5.75, 5.75, 6.13, 6.28, 6.28, 6.67, 6.56, 6.95, 6.95, 7.08, 7.48, 7.48, 7.87, 8.0, 7.76, 8.15, 8.15, 8.28, 8.28, 8.68, 8.68, 8.68, 8.91, 8.51, 8.51, 8.51, 8.51, 8.51, 8.91, 9.01, 8.51, 7.48, 6.95, 6.41, 6.15, 6.15, 5.59, 5.29, 5.21, 5.21, 6.0, 6.1, 6.79, 6.94, 6.16, 5.7, 5.33, 4.92, 4.47, 4.02, 3.58, 3.13, 2.24, 1.34, -0.0, -0.0, 0.89, 0.89, 0.45, -0.0, -0.0, -0.0, -0.0, 1.79, 4.02, 4.47, 4.02, 4.92, 10.7, 14.73, 16.03, 9.36, -0.0, -2.98, -2.3, -1.49, -0.0, 0.8, -0.0, -0.0, -0.0, -1.26, -1.26, -1.26, 3.14, 3.14, 3.35, 3.43, 3.64, 4.0, 4.0, 4.55, 4.55, 4.93, 5.08, 5.21, 5.21, 5.21, 5.75, 5.75, 6.13, 6.28, 6.28, 6.67, 6.41, 6.56, 6.95, 6.95, 7.48, 7.48, 7.48, 7.87, 7.76, 8.15, 8.15, 8.15, 8.28, 8.28, 8.28, 8.28, 8.51, 8.51, 8.51, 8.51, 8.51, 8.51, 8.51, 8.91, 8.51, 8.0, 6.95, 6.41, 6.41, 5.93, 5.59, 5.29, 5.21, 5.08, 5.08, 5.6, 6.1, 6.79, 6.51, 5.99, 5.26, 5.33, 4.88, 4.43, 3.53, 3.53, 3.13, 1.79, 0.89, 0.89, 0.89, 0.89, -1.34, 0.89, -0.0, 0.89, 0.0, 1.74, 3.93, 4.22, 4.15, 4.57, 9.8, 13.41, 15.2, 8.05, -2.53, -4.11, -2.98, -2.84, -2.0, -0.0, -0.0, -1.2, -1.58, -2.0, -2.0, -2.0, 2.84, 2.84, 3.35, 3.43, 3.43, 4.0, 4.0, 4.55, 4.55, 4.93, 4.84, 4.84, 5.21, 5.21, 5.75, 5.75, 5.75, 6.13, 6.28, 6.67, 6.41, 6.56, 6.95, 6.95, 7.34, 7.48, 7.48, 7.87, 7.76, 7.76, 8.15, 8.15, 8.15, 8.15, 8.15, 8.51, 8.51, 8.51, 8.51, 8.4, 8.4, 8.51, 8.51, 8.51, 8.51, 8.0, 6.95, 6.41, 5.86, 5.59, 5.01, 5.29, 4.65, 4.93, 4.93, 5.08, 5.6, 6.1, 6.72, 6.3, 5.57, 5.24, 5.24, 4.77, 3.98, 3.53, 3.09, 2.24, 0.89, 0.89, 0.89, 0.89, 0.89, 0.45, -0.0, -0.0, 0.0, 0.98, 2.76, 3.35, 3.48, 5.82, 8.14, 11.6, 13.86, 7.55, -2.54, -5.09, -3.72, -3.16, -3.04, -2.54, -1.74, -1.9, -2.4, -2.68, -2.68, -2.68, 2.84, 2.84, 2.84, 3.43, 3.43, 4.0, 4.0, 4.37, 4.55, 4.93, 4.65, 4.84, 5.21, 5.21, 5.21, 5.75, 5.75, 6.13, 6.28, 6.03, 6.41, 6.41, 6.56, 6.95, 6.95, 7.48, 7.48, 7.48, 7.87, 7.76, 7.76, 8.15, 8.15, 8.15, 8.15, 8.4, 8.4, 8.4, 8.4, 8.4, 8.0, 8.4, 8.51, 8.51, 8.51, 8.0, 7.48, 6.41, 5.86, 5.59, 5.01, 4.71, 4.65, 4.93, 4.55, 4.55, 5.08, 5.6, 6.1, 6.1, 5.81, 5.57, 5.09, 4.77, 4.3, 3.82, 3.53, 2.6, 1.34, 0.89, 0.45, 0.89, 0.89, 0.45, 0.89, 0.89, 0.0, 0.87, 2.76, 2.6, 3.47, 4.74, 6.44, 9.49, 11.84, 8.8, 0.89, -4.46, -3.72, -2.3, -2.53, -3.74, -3.2, -1.9, -2.4, -2.68, -2.68, -2.68, 2.84, 2.84, 2.84, 3.43, 3.43, 4.0, 4.0, 4.37, 4.55, 4.93, 4.65, 4.84, 5.21, 5.21, 5.21, 5.75, 5.75, 5.75, 6.13, 6.03, 6.41, 6.41, 6.56, 6.95, 6.95, 7.34, 7.48, 7.48, 7.48, 7.61, 7.76, 7.76, 7.76, 8.15, 8.15, 8.0, 8.0, 8.0, 8.0, 8.0, 8.0, 8.0, 8.0, 8.51, 8.51, 8.0, 7.48, 6.67, 5.86, 5.35, 5.01, 4.71, 4.65, 4.29, 4.55, 4.55, 5.08, 5.47, 5.75, 6.0, 5.6, 5.81, 5.4, 5.09, 4.6, 3.87, 3.39, 2.91, 2.12, 1.34, 0.89, 0.89, 0.89, 0.45, 0.0, -1.26, 0.0, 0.0, 1.66, 2.4, 2.6, 4.29, 5.69, 8.67, 10.68, 9.75, 3.93, -2.68, -3.84, -2.53, -2.68, -3.74, -3.47, -2.54, -2.54, -2.68, -2.68, -2.68, 2.84, 2.84, 2.84, 3.43, 3.43, 4.0, 4.0, 4.37, 4.55, 4.55, 4.65, 4.65, 5.21, 5.21, 5.21, 5.58, 5.75, 5.75, 6.13, 6.03, 6.41, 6.41, 6.41, 6.95, 6.95, 6.95, 7.34, 7.48, 7.48, 7.61, 7.61, 7.76, 7.76, 7.76, 8.0, 8.0, 8.0, 8.0, 8.0, 8.0, 8.0, 8.0, 8.0, 8.0, 8.4, 8.0, 7.48, 6.67, 5.86, 5.29, 5.01, 4.71, 4.65, 4.29, 4.55, 4.55, 4.55, 5.08, 5.21, 5.21, 5.21, 5.6, 5.81, 5.4, 4.8, 4.11, 3.6, 3.2, 2.5, 1.26, 0.89, 1.34, 1.34, 1.34, 0.89, -1.26, -1.0, -1.0, 0.0, 0.88, 1.7, 3.33, 5.69, 8.42, 10.8, 10.95, 7.42, 0.76, -3.04, -3.16, -3.16, -3.2, -3.58, -3.13, -3.13, -2.68, -2.68, -2.68, 2.84, 2.84, 2.84, 3.43, 3.43, 3.78, 4.0, 4.37, 4.37, 4.29, 4.65, 4.65, 4.84, 5.21, 5.21, 5.21, 5.75, 5.75, 5.86, 5.86, 6.03, 6.41, 6.41, 6.56, 6.95, 6.95, 6.95, 7.48, 7.48, 7.23, 7.61, 7.61, 7.76, 7.76, 7.76, 8.0, 8.0, 8.0, 8.0, 8.0, 8.0, 8.0, 8.0, 8.0, 8.0, 8.0, 7.48, 6.8, 5.86, 5.29, 5.01, 4.71, 4.11, 4.07, 4.07, 4.37, 4.55, 5.08, 5.21, 5.21, 5.21, 5.21, 5.6, 5.6, 5.31, 4.4, 3.88, 3.35, 2.79, 2.15, 1.6, 1.79, 1.79, 2.24, 1.34, 0.0, -1.9, -1.74, -0.87, 0.0, 0.88, 3.2, 5.59, 8.03, 10.63, 11.5, 9.9, 5.82, 0.0, -2.54, -2.86, -3.2, -3.13, -3.13, -2.68, -2.68, -2.68, -2.68, 2.84, 2.84, 2.84, 3.16, 3.43, 3.78, 4.0, 4.0, 4.37, 4.29, 4.65, 4.65, 4.65, 5.21, 5.21, 5.21, 5.58, 5.75, 5.86, 5.86, 6.03, 6.41, 6.41, 6.41, 6.95, 6.95, 6.95, 7.34, 7.48, 7.23, 7.23, 7.61, 7.61, 7.76, 7.76, 8.0, 7.87, 7.87, 7.87, 8.0, 8.0, 8.0, 8.0, 8.0, 8.0, 8.0, 7.48, 6.8, 5.86, 5.29, 4.74, 4.71, 4.11, 4.07, 4.07, 4.07, 4.29, 4.65, 5.21, 5.21, 4.65, 5.21, 5.21, 5.75, 5.6, 5.08, 4.27, 3.72, 3.72, 2.79, 1.9, 1.7, 1.2, 2.24, 1.34, 0.0, -1.9, -1.98, -0.98, 0.0, 1.72, 3.4, 4.96, 7.27, 9.67, 10.8, 10.43, 8.55, 5.46, 0.0, -2.68, -2.97, -2.68, -2.68, -2.68, -2.68, -2.68, -2.68, 2.84, 2.84, 2.84, 3.16, 3.43, 3.78, 4.0, 4.0, 4.37, 4.29, 4.65, 4.65, 4.65, 5.21, 5.21, 5.21, 5.58, 5.75, 5.86, 5.86, 6.03, 6.41, 6.41, 6.41, 6.95, 6.95, 6.95, 7.34, 7.48, 7.23, 7.23, 7.61, 7.61, 7.76, 7.76, 8.0, 7.87, 7.87, 7.87, 8.0, 8.0, 8.0, 8.0, 8.0, 8.0, 8.0, 7.48, 6.8, 5.86, 5.29, 4.74, 4.71, 4.11, 4.07, 4.07, 4.07, 4.29, 4.65, 5.21, 5.21, 4.65, 5.21, 5.21, 5.75, 5.6, 5.08, 4.27, 3.72, 3.72, 2.79, 1.9, 1.7, 1.2, 2.24, 1.34, 0.0, -2.21, -1.98, -0.98, 0.0, 1.72, 3.4, 4.96, 6.83, 8.65, 10.23, 10.0, 8.95, 7.42, 4.43, 0.0, -2.0, -2.24, -2.24, -2.24, -1.79, -1.79, -1.79]}, {"header": {"dx": 0.06612293990616946, "dy": 0.0552356325346848, "nx": 98, "ny": 59, "la1": 35.046912555036876, "la2": 31.78801023549047, "lo1": -121.43107172385933, "lo2": -114.95102361305473, "refTime": "2026040915", "parameterCategory": 1, "parameterNumber": 3}, "data": [-2.23, -2.23, -2.23, -2.51, -2.51, -2.23, -2.53, -2.21, -2.5, -1.86, -1.6, -0.89, 0.0, 0.0, 0.0, 0.0, 0.0, 0.0, 0.0, 0.0, -0.0, -0.0, 1.9, 2.6, 3.22, 4.0, 3.74, 3.6, 2.98, 2.21, 1.9, 1.0, -0.0, -0.0, 0.0, -0.89, -1.34, 0.0, 0.0, 0.0, 0.0, 0.0, -1.3, -3.6, -5.92, -6.9, -8.62, -10.35, -9.54, -3.15, 1.6, 4.11, 4.16, 4.95, 4.83, 5.49, 5.64, 4.92, 4.8, 4.13, 3.85, 3.16, 3.11, 2.44, 2.99, 3.15, 3.88, 3.95, 4.68, 4.93, 3.96, 4.06, 3.16, 2.39, 1.58, 0.83, 0.0, 0.0, 0.0, 0.0, -0.0, 0.0, -1.34, -1.79, -2.24, -1.6, -1.79, -2.24, -2.53, -3.47, -5.1, -5.76, -6.42, -6.05, -5.52, -4.6, -3.4, -2.6, -2.23, -2.23, -2.23, -2.51, -2.51, -2.23, -2.53, -2.5, -2.5, -2.4, -2.12, -1.79, -1.34, -0.89, 0.0, 0.0, 0.0, 0.0, -1.79, -1.34, 0.0, -0.0, -0.0, 1.6, 2.84, 3.22, 3.6, 3.6, 2.98, 1.74, 0.85, 1.0, 0.95, 0.0, 0.0, 0.0, -0.99, -1.49, -1.26, 0.0, -1.0, -2.98, -5.72, -7.82, -10.43, -11.19, -12.13, -10.15, -4.12, 1.98, 4.6, 4.29, 4.95, 5.0, 5.64, 5.76, 5.64, 5.41, 4.8, 4.68, 4.01, 3.85, 3.95, 3.21, 4.0, 4.0, 4.07, 4.8, 4.01, 4.65, 4.1, 3.96, 3.19, 2.31, 1.6, 0.85, 0.77, 0.0, 0.0, 0.0, -0.0, 0.0, -1.34, -1.79, -2.24, -1.6, -1.79, -2.24, -2.53, -3.47, -5.1, -5.76, -6.42, -6.05, -5.52, -4.6, -3.4, -2.6, -2.23, -2.23, -2.23, -2.51, -2.51, -2.23, -2.53, -2.53, -3.07, -2.91, -2.6, -1.7, -1.79, -1.79, -0.95, 0.0, 0.0, -1.0, -2.0, -2.24, -0.89, -0.0, -0.0, -0.0, 1.27, 2.53, 3.22, 3.6, 3.6, 1.74, -0.0, -0.0, -0.0, 1.79, 1.0, 0.0, 0.0, -1.55, -2.53, -2.68, -4.01, -6.95, -9.89, -11.82, -12.09, -11.29, -8.84, -3.32, 1.83, 3.35, 4.01, 4.29, 4.95, 5.59, 5.94, 5.76, 5.64, 4.8, 4.8, 4.01, 4.01, 4.01, 3.95, 4.07, 4.71, 4.92, 4.8, 4.87, 4.75, 4.65, 4.81, 3.96, 2.44, 1.63, 0.82, 0.0, 0.82, 0.0, 0.0, -0.0, -0.0, -0.0, -2.0, -2.6, -2.21, -1.9, -1.26, -2.24, -3.16, -4.83, -6.42, -7.18, -7.48, -7.18, -4.96, -2.35, -0.82, -0.88, -2.23, -2.23, -2.23, -2.51, -2.51, -2.84, -2.79, -2.79, -3.07, -3.2, -2.91, -2.6, -2.68, -1.79, -1.26, -1.26, -1.2, -2.21, -1.9, -2.0, -1.34, 0.0, -1.4, -0.88, -0.0, -0.0, 2.53, 2.98, 3.2, 2.6, -0.0, -1.74, -1.74, -2.24, 0.0, -1.41, -1.3, -2.66, -5.24, -6.32, -7.9, -9.48, -10.18, -8.76, -6.97, -4.13, -1.68, 0.8, 1.65, 2.26, 3.2, 4.03, 4.83, 5.1, 5.76, 5.38, 4.71, 3.95, 4.13, 4.13, 3.85, 4.01, 4.8, 5.14, 5.76, 5.76, 5.86, 5.77, 6.21, 6.67, 5.67, 4.1, 2.44, 0.7, 0.0, 0.0, 0.0, 0.0, 0.0, -0.0, -1.26, -1.26, -2.6, -3.22, -3.16, -2.21, -1.79, -2.98, -5.06, -6.7, -7.24, -7.36, -6.88, -4.03, 0.0, 0.88, 0.0, 0.0, -2.23, -2.48, -2.23, -2.23, -2.84, -2.84, -2.79, -2.79, -3.6, -3.6, -3.39, -2.6, -2.54, -2.4, -2.4, -2.4, -2.6, -2.53, -2.21, -2.97, -2.68, -1.9, -1.4, -0.0, -0.79, -0.0, -0.0, 1.9, 1.9, 2.54, 1.34, -2.0, -4.15, -4.92, -5.6, -5.72, -5.06, -5.72, -7.97, -9.0, -8.93, -7.08, -4.83, -2.23, -0.78, 0.0, 0.0, 0.0, 0.0, 0.77, 3.27, 3.91, 3.91, 4.71, 4.96, 4.83, 4.07, 4.07, 3.95, 4.13, 4.13, 4.13, 4.8, 6.31, 6.57, 6.2, 6.2, 6.57, 7.73, 7.54, 6.52, 4.87, 3.6, 2.34, 0.0, -0.78, -0.96, 0.0, 1.2, -0.71, -2.6, -2.97, -3.9, -4.22, -3.84, -3.9, -3.58, -4.95, -7.18, -7.73, -6.97, -6.42, -3.9, 0.0, 2.6, 0.88, 0.0, -1.55, -2.48, -2.48, -2.48, -2.86, -2.84, -2.84, -3.14, -3.14, -3.6, -3.6, -3.39, -3.07, -2.54, -2.4, -2.97, -2.97, -3.2, -4.0, -3.58, -4.57, -4.47, -3.74, -3.16, -2.84, -1.8, -2.84, -2.84, -2.21, -1.9, 0.0, 1.34, 0.0, -2.68, -5.31, -6.4, -6.4, -6.44, -5.89, -7.27, -8.42, -7.44, -5.69, -2.35, -0.77, -0.79, -0.8, -1.54, -1.58, 0.0, 0.8, 1.65, 2.54, 3.27, 3.27, 3.15, 3.21, 3.21, 3.06, 4.07, 4.13, 3.95, 4.71, 5.52, 6.31, 6.31, 6.2, 6.31, 6.42, 6.31, 6.33, 5.38, 4.87, 4.71, 3.14, 0.8, 0.0, -0.87, 0.0, 1.66, -0.95, -3.47, -4.47, -5.36, -5.59, -6.02, -7.15, -8.05, -8.22, -8.85, -7.82, -6.53, -4.16, 0.0, 2.68, 2.4, 0.0, -1.75, -2.54, -2.48, -2.48, -2.48, -2.86, -2.86, -3.16, -2.84, -3.35, -3.72, -4.11, -3.87, -3.53, -2.54, -2.4, -2.8, -2.97, -3.6, -4.6, -4.84, -4.46, -4.22, -2.97, -3.04, -4.57, -5.2, -4.77, -5.2, -5.2, -4.8, -2.98, -0.0, 1.34, 0.0, -2.84, -4.81, -5.46, -5.82, -6.01, -4.75, -5.43, -7.21, -7.2, -7.07, -5.72, -5.64, -4.01, -3.07, -1.62, 0.0, 0.0, 1.07, 1.55, 2.4, 2.54, 2.31, 1.6, 2.35, 2.35, 2.47, 3.25, 3.11, 3.88, 4.71, 4.92, 4.71, 5.52, 5.52, 4.83, 4.2, 3.16, 3.11, 3.23, 2.97, 2.41, 1.55, 1.56, 0.84, 1.6, 1.65, 0.0, -3.6, -5.75, -6.65, -7.6, -8.46, -9.46, -10.63, -9.62, -7.9, -5.59, -2.41, 0.0, 2.24, 2.24, 0.0, -1.72, -3.15, -3.45, -2.48, -2.48, -2.86, -2.86, -2.86, -3.16, -3.43, -3.72, -3.88, -4.52, -4.34, -3.98, -3.58, -3.39, -2.84, -2.53, -3.16, -4.11, -4.43, -3.22, -0.81, 0.0, 0.0, -2.98, -4.02, -4.92, -5.81, -6.23, -5.01, -3.79, -3.16, -3.2, -4.02, -4.11, -4.36, -5.43, -5.82, -5.06, -3.45, -3.79, -5.2, -7.2, -8.54, -8.37, -6.01, -2.49, -0.78, 0.0, 0.0, 0.0, 0.0, 0.83, 1.55, 1.58, 1.67, 1.6, 2.47, 2.47, 2.28, 2.39, 3.11, 3.21, 3.36, 3.21, 3.15, 4.0, 4.07, 2.35, 1.52, 1.62, 1.58, 1.54, 0.0, 0.0, 0.8, 2.1, 3.16, 3.25, 1.58, 0.0, -2.15, -6.0, -6.79, -7.76, -8.91, -9.86, -9.52, -8.31, -5.3, -1.2, 1.26, 1.9, 1.9, 0.0, -0.87, -2.51, -4.0, -4.12, -2.48, -2.48, -2.86, -2.86, -2.86, -2.86, -3.43, -3.43, -4.27, -4.4, -5.09, -5.26, -6.71, -6.65, -5.94, -5.2, -5.21, -4.81, -4.11, -2.76, 0.0, 0.0, 0.96, 0.0, -1.8, -3.2, -4.24, -5.01, -4.74, -5.2, -6.26, -7.6, -8.05, -7.21, -5.82, -4.74, -5.06, -5.06, -2.73, 0.0, 0.0, -3.72, -5.36, -3.79, 0.0, 1.79, 0.0, 0.0, 0.78, 1.63, 1.1, 0.82, 0.83, 1.65, 1.67, 1.6, 1.54, 1.62, 2.39, 2.39, 2.39, 1.62, 1.68, 2.44, 2.54, 3.15, 2.49, 1.69, 0.81, 0.78, 0.76, 0.71, 0.0, 0.0, 0.7, 0.8, 1.58, 1.64, 0.81, 0.7, 0.0, -5.06, -6.54, -7.03, -7.28, -7.32, -6.98, -5.89, -2.3, 1.34, 1.9, 1.9, -0.0, -1.26, -1.7, -3.27, -4.0, -4.26, -2.48, -2.48, -2.6, -2.86, -3.15, -3.48, -3.48, -3.78, -4.0, -4.55, -5.81, -6.1, -6.3, -7.4, -8.45, -8.29, -8.56, -8.99, -8.6, -8.17, -7.21, -6.13, -5.06, -4.74, -4.29, -3.58, -3.82, -4.65, -5.6, -6.26, -6.61, -7.06, -6.14, -5.2, -5.2, -4.65, -3.49, -2.53, 0.0, 3.13, 2.24, 0.0, -0.99, 0.0, 1.26, 1.79, 1.79, 1.2, 1.66, 2.6, 3.11, 2.47, 1.63, 0.79, 1.58, 1.6, 1.62, 0.82, 0.82, 0.82, 0.82, 0.78, 1.11, 2.51, 3.09, 2.35, 1.63, 1.45, 0.72, 0.0, 0.0, 0.0, 0.0, 0.0, 0.0, 0.0, -1.54, -1.64, -1.41, 0.0, 0.0, -1.41, -5.6, -5.69, -4.74, -3.64, -3.55, -2.8, 0.0, 0.8, 1.34, 1.34, -1.34, -2.98, -3.33, -4.2, -4.6, -4.29, -2.48, -2.22, -2.86, -2.86, -2.86, -3.2, -3.48, -3.48, -4.07, -4.93, -5.37, -6.28, -6.41, -6.56, -7.35, -8.56, -8.82, -8.48, -9.39, -9.91, -11.36, -10.89, -9.66, -8.14, -6.17, -4.02, -4.24, -4.4, -4.34, -4.47, -4.24, -2.97, 0.0, 0.0, -1.26, -2.53, -1.27, 0.0, 1.6, 2.24, 2.24, 0.0, 0.0, 0.0, 0.0, 1.26, 2.0, 2.21, 2.53, 3.16, 3.35, 2.47, 2.35, 1.73, 1.65, 1.6, 0.75, 0.0, 0.0, 0.0, 0.0, 1.58, 2.64, 3.47, 4.03, 3.21, 2.41, 1.56, 0.0, -0.79, -1.54, -1.43, -1.43, -1.38, -1.38, -2.13, -3.53, -4.06, -4.06, -4.0, -2.19, -0.71, -2.17, -4.4, -2.84, -1.55, -2.04, -1.41, 0.0, 0.0, 0.0, -0.99, -2.21, -3.58, -5.24, -4.92, -4.26, -1.98, -2.48, -2.22, -2.86, -2.86, -2.86, -3.2, -3.49, -3.79, -4.07, -4.65, -5.58, -5.86, -6.15, -5.69, -5.08, -5.06, -4.43, -5.29, -6.15, -7.76, -7.07, -5.24, -3.73, -4.65, -2.53, -1.13, -1.27, -1.26, 0.0, 0.0, 0.0, 1.34, 3.39, 2.98, 1.79, 0.0, 0.0, 1.79, 1.26, 1.79, 2.68, 1.79, 0.0, -1.79, -2.24, 0.0, 0.0, 1.4, 1.6, 1.27, 0.88, 0.88, 0.89, 0.83, 0.84, 0.81, 0.75, 0.0, -1.58, -0.89, 1.66, 3.48, 4.22, 4.22, 4.01, 4.0, 4.13, 3.16, 0.82, -0.82, -2.15, -2.06, -2.06, -3.19, -3.82, -4.0, -4.81, -5.6, -6.44, -6.36, -5.48, -2.31, -1.54, -3.48, -2.53, -2.2, -3.0, -2.8, -1.6, -0.7, -0.79, -0.76, -0.85, -2.68, -5.1, -5.28, -2.47, 0.0, -2.22, -2.22, -2.44, -2.86, -3.12, -3.12, -3.49, -3.49, -3.79, -4.37, -5.29, -5.59, -6.23, -6.28, -5.36, -4.03, -2.92, -2.77, -3.42, -4.05, -3.8, -2.19, -1.06, 0.0, 0.51, 0.58, 0.56, 0.56, 0.56, 0.55, 0.79, 1.9, 2.24, 2.4, 2.4, 1.9, 1.49, 2.21, 1.9, 2.4, 3.13, 2.68, 1.34, -1.34, -3.13, -3.58, -3.82, -2.84, -2.48, -2.73, -1.49, -1.55, -1.6, -1.52, -1.25, 0.0, 1.26, 1.16, -0.96, -0.0, 4.15, 5.36, 5.09, 3.6, 3.58, 4.01, 5.13, 5.63, 4.6, 2.47, 1.67, 0.0, -0.81, -3.21, -4.8, -5.51, -4.68, -4.92, -5.7, -5.7, -5.04, -4.5, -3.53, -4.65, -4.29, -4.16, -4.83, -4.43, -2.2, -1.47, -0.7, -0.7, -0.76, -2.53, -4.26, -4.12, -0.81, 1.2, -2.22, -2.44, -2.44, -2.86, -3.12, -3.12, -3.49, -3.49, -4.11, -4.11, -4.74, -5.59, -5.98, -6.28, -5.72, -5.34, -4.0, -3.35, -2.86, -2.86, -2.8, -2.23, -1.12, 0.0, 0.0, 0.0, 0.0, 0.56, 0.54, 0.56, 0.0, 0.0, 0.0, 0.0, 1.26, 1.9, 1.9, 2.0, 2.0, 2.4, 2.68, 2.24, 1.79, 0.0, -2.24, -3.2, -3.6, -4.09, -3.79, -4.11, -4.11, -4.74, -4.47, -3.76, -1.41, 0.0, 0.0, 0.0, 0.0, 2.21, 4.54, 5.81, 5.36, 4.92, 3.47, 3.6, 3.72, 5.3, 5.72, 5.76, 6.42, 5.64, 2.44, 0.0, -2.8, -2.4, -1.83, -1.83, -2.4, -2.6, -3.47, -5.49, -5.89, -5.8, -5.7, -5.64, -4.71, -4.54, -2.53, -1.41, -1.47, -1.47, -1.41, -1.7, -3.0, -1.63, 0.0, 0.0, -2.22, -2.44, -2.44, -2.61, -2.84, -2.84, -3.22, -3.49, -3.83, -4.12, -4.74, -5.06, -5.65, -6.01, -5.72, -5.72, -5.06, -4.16, -3.97, -3.45, -2.77, -2.33, -1.74, -1.16, -0.57, -0.57, 0.0, 0.0, 0.0, 0.0, 0.0, -0.57, -1.23, 0.0, 0.0, 2.24, 2.68, 2.24, 2.68, 2.24, 2.68, 2.68, 1.79, 2.24, 2.24, 1.79, 0.0, 0.0, 0.0, -1.6, -1.55, -2.4, 0.0, 1.58, 2.68, 2.24, -1.8, -2.31, 0.0, 3.6, 3.58, 3.6, 3.58, 3.58, 3.58, 3.2, 1.41, 2.6, 4.02, 5.69, 6.24, 5.52, 3.91, 1.8, 1.79, 2.24, 2.4, 1.0, 0.0, 0.0, -1.6, -4.01, -4.28, -4.31, -4.12, -6.57, -4.96, -3.79, -2.23, -2.0, -2.35, -3.0, -2.88, -2.11, -1.63, -0.82, -0.81, -0.81, -2.22, -2.44, -2.44, -2.84, -2.84, -2.84, -3.49, -3.49, -3.49, -4.12, -4.12, -4.75, -5.08, -5.69, -5.71, -5.72, -5.32, -4.63, -4.12, -3.42, -2.87, -2.84, -2.28, -1.71, -0.57, 0.0, 0.0, 0.0, 0.0, 0.0, 0.0, -0.56, -1.78, -1.14, 0.0, 1.6, 2.97, 2.6, 3.13, 3.13, 3.13, 2.24, 2.68, 2.8, 3.2, 3.6, 3.2, 2.8, 2.68, 2.24, 0.0, 1.9, 2.8, 3.58, 3.13, 1.79, -1.6, -2.32, 0.0, 3.82, 1.9, 1.9, 1.58, 2.24, 2.24, 0.0, 0.0, 1.4, 4.11, 4.75, 3.4, 0.73, 0.0, 1.0, 2.24, 3.58, 4.15, 3.22, 1.9, 0.0, 0.0, -1.98, -2.6, -2.51, -2.47, -1.55, -3.27, -2.6, -2.41, -2.53, -3.4, -4.43, -2.98, -2.26, -2.31, -2.9, -2.47, -2.47, -2.44, -2.44, -2.2, -2.4, -2.84, -2.84, -3.08, -3.49, -3.47, -3.84, -3.84, -4.45, -4.47, -5.38, -5.38, -5.36, -5.08, -4.63, -4.12, -3.42, -2.87, -2.39, -2.37, -1.14, 0.0, 0.0, 0.0, 0.0, 0.0, 0.0, -0.58, -1.19, -2.35, -2.21, -0.76, 0.0, 2.0, 2.8, 3.13, 3.58, 3.58, 2.68, 2.8, 2.4, 3.2, 2.53, 2.84, 1.6, 1.6, 2.8, 3.13, 2.68, 2.68, 2.24, 0.0, 0.0, 0.0, 1.9, 3.13, 1.9, -0.0, -0.0, 1.9, 1.9, 2.24, 0.95, 0.0, 0.0, 0.0, 1.25, -1.22, -3.91, -3.22, -0.0, 1.58, 4.47, 6.16, 5.82, 4.11, 2.0, 0.87, -0.87, -2.68, -3.07, -2.84, -1.26, -0.88, -2.68, -3.22, -4.12, -4.87, -4.75, -4.46, -5.0, -4.83, -4.37, -4.56, -4.56, -2.44, -2.44, -2.2, -2.4, -2.84, -3.08, -2.82, -3.22, -3.47, -3.47, -3.84, -4.12, -4.47, -4.75, -5.1, -5.1, -5.08, -4.63, -4.16, -2.9, -2.3, -2.37, -2.37, -0.58, 0.0, 0.0, 0.0, -0.6, -1.14, -1.18, -1.77, -2.32, -3.5, -3.35, -2.86, -1.2, -1.26, 0.0, 2.68, 3.2, 3.13, 2.21, 2.21, 1.9, 1.4, 1.4, 1.4, 1.6, 1.6, 1.6, 2.21, 2.68, 2.24, 1.79, 0.0, 0.0, 2.24, 2.68, 2.68, -0.0, -0.0, -0.0, -0.0, 2.8, 3.82, 3.13, 1.79, -2.21, -5.36, -4.6, -3.68, -3.11, -1.34, -0.0, 2.0, 4.47, 6.16, 6.73, 5.76, 4.26, 2.64, 0.0, -1.7, -3.22, -3.13, -3.13, -4.6, -3.48, -4.95, -6.53, -5.21, -5.06, -5.69, -6.7, -6.24, -5.49, -5.3, -5.3, -2.44, -2.44, -2.2, -2.4, -2.4, -2.82, -2.82, -3.04, -3.47, -3.47, -3.72, -4.12, -3.85, -4.75, -5.08, -5.49, -5.1, -4.69, -3.35, -2.28, -2.3, -3.44, -4.02, -3.16, -1.69, -2.37, -2.33, -3.04, -3.14, -3.44, -3.41, -3.56, -4.02, -4.42, -4.12, -2.84, -2.15, -0.89, -0.0, -0.0, 1.0, 1.0, -0.0, -0.0, -0.0, -0.0, -0.0, 1.6, 1.6, 1.4, 2.21, 1.9, 2.68, 2.24, 2.24, 1.79, 0.0, 0.0, -0.0, -0.0, -0.0, -0.0, 1.9, 3.6, 4.57, 4.57, 3.13, -0.99, -4.42, -3.77, 0.0, 2.34, 3.91, 3.11, 1.65, 1.7, 0.88, 1.55, 2.47, 2.28, 0.77, 0.0, -2.76, -3.74, -4.02, -4.38, -4.8, -4.43, -6.64, -6.64, -5.76, -5.89, -7.06, -7.85, -7.41, -6.64, -7.02, -7.02, -2.44, -2.2, -2.2, -2.4, -2.18, -2.82, -2.82, -3.04, -3.47, -3.47, -3.45, -3.85, -3.85, -4.1, -4.47, -4.73, -5.1, -4.73, -4.83, -4.2, -4.75, -5.14, -6.29, -6.45, -7.36, -6.45, -5.51, -5.23, -5.17, -4.48, -3.99, -4.17, -4.57, -4.44, -4.12, -3.48, -2.23, -1.24, 0.0, 0.0, -0.0, -0.0, -0.0, -0.0, -0.0, -0.0, -0.0, 1.6, 1.6, 1.6, 2.53, 3.2, 3.2, 3.13, 2.24, 1.34, 0.0, 0.0, -0.0, -0.0, -0.0, -0.0, 2.84, 4.09, 4.15, 3.6, 2.97, 1.2, 0.0, 1.6, 3.91, 6.17, 5.61, 3.16, 0.0, -2.37, -4.6, -5.64, -2.31, -0.79, 0.0, 0.0, -0.88, -2.68, -2.6, -1.34, 0.0, 0.0, -4.36, -5.06, -6.73, -7.59, -8.38, -8.95, -8.4, -8.42, -8.42, -8.42, -2.44, -2.2, -2.2, -2.4, -2.18, -2.82, -2.82, -3.04, -2.8, -3.22, -3.45, -3.45, -3.85, -4.1, -4.47, -4.73, -5.1, -5.1, -6.01, -7.18, -7.12, -6.31, -6.7, -7.33, -7.33, -6.7, -5.64, -4.54, -4.54, -3.86, -3.5, -3.37, -3.45, -3.4, -3.22, -3.16, -2.86, -1.8, -0.99, -0.71, -0.89, -0.0, -0.0, -0.0, -0.0, -0.0, -0.0, 1.6, 1.6, 2.84, 2.84, 2.84, 3.2, 3.2, 2.68, 1.34, 0.0, -1.34, -1.79, 0.0, 0.0, 1.4, 2.48, 2.48, 2.98, 1.9, 2.0, 2.4, 3.63, 5.1, 7.08, 7.13, 6.24, 2.32, -2.33, -6.1, -10.47, -10.24, -8.12, -5.63, -2.31, -0.82, 0.0, -0.89, -0.0, 1.26, 1.79, 1.26, 0.0, -3.22, -6.32, -8.6, -8.65, -8.4, -8.67, -8.4, -7.92, -7.92, -2.44, -2.2, -2.4, -2.4, -2.18, -2.36, -2.82, -2.8, -2.8, -2.8, -3.45, -3.45, -3.68, -4.1, -4.08, -4.73, -5.1, -5.72, -6.35, -7.61, -6.31, -5.02, -5.29, -5.69, -6.31, -5.62, -4.48, -3.47, -2.82, -2.19, -2.3, -2.3, -2.25, -2.26, -2.86, -3.16, -3.16, -2.86, -2.2, -1.76, -1.61, -0.95, -0.63, -0.0, -0.0, -0.0, -0.0, 1.6, 1.8, 1.8, 2.84, 2.84, 2.84, 3.2, 3.13, 2.24, 0.0, 0.0, -2.24, -2.24, 0.0, 2.4, 2.84, 2.84, 2.6, 2.54, 2.24, 1.79, 2.98, 6.23, 8.22, 9.17, 7.71, 3.04, -6.08, -10.09, -12.9, -12.9, -11.94, -9.21, -6.57, -3.78, -1.67, -0.88, 0.0, 0.0, 0.0, -1.0, -2.88, -3.69, -7.27, -8.57, -7.61, -6.64, -6.79, -7.47, -8.0, -8.0, -2.44, -2.44, -2.2, -2.4, -2.18, -2.36, -2.82, -2.8, -2.8, -3.0, -3.45, -3.45, -3.42, -3.42, -3.84, -4.73, -5.1, -5.72, -6.35, -6.33, -5.64, -4.05, -3.91, -4.12, -4.57, -4.54, -4.17, -3.44, -2.9, -2.34, -1.77, -1.71, -1.74, -2.19, -2.36, -2.86, -2.86, -2.86, -2.84, -2.82, -2.4, -1.8, -1.24, -0.89, -0.0, 0.6, -0.0, 1.6, 1.27, 2.23, 3.16, 2.84, 2.84, 3.82, 4.02, 3.58, 2.68, 1.34, 0.0, -2.0, 0.0, 2.0, 3.47, 3.47, 3.47, 4.02, 3.13, 1.79, 1.26, 2.68, 4.02, 4.11, 1.69, 0.0, -3.82, -6.71, -10.6, -11.99, -13.07, -11.85, -9.78, -6.88, -4.12, -2.64, -2.68, -2.97, -2.97, -4.22, -5.37, -5.24, -7.27, -7.33, -4.43, -1.9, -3.47, -6.0, -6.9, -6.9, -2.44, -2.44, -2.2, -2.4, -2.18, -2.36, -2.36, -2.8, -2.8, -3.0, -3.0, -3.21, -3.42, -3.42, -4.08, -4.08, -4.71, -5.34, -5.72, -5.95, -5.23, -4.72, -3.86, -3.53, -3.89, -4.05, -4.02, -3.99, -3.44, -2.87, -2.3, -2.3, -2.24, -2.33, -2.89, -2.8, -2.84, -2.86, -2.84, -2.82, -2.8, -2.36, -2.44, -1.61, -0.6, -0.0, -0.0, -0.0, 1.27, 2.73, 3.48, 4.09, 3.72, 3.72, 4.24, 4.24, 3.9, 2.54, 0.0, 0.0, -1.34, -0.0, 2.4, 3.47, 4.38, 4.47, 3.9, 2.8, 0.0, 0.0, -1.34, -3.39, -0.8, 0.0, 0.0, -4.24, -6.71, -8.67, -10.38, -10.94, -10.65, -8.58, -6.64, -5.0, -4.11, -4.66, -5.75, -6.16, -4.84, -2.4, -4.54, -2.54, -0.89, 0.0, -2.54, -5.43, -6.64, -6.64, -2.44, -2.44, -2.2, -2.4, -2.4, -2.18, -2.36, -2.8, -2.8, -3.0, -3.0, -3.21, -3.42, -3.42, -4.08, -3.83, -4.46, -4.69, -5.32, -5.29, -5.26, -5.0, -4.51, -4.17, -4.02, -4.02, -4.02, -4.02, -3.6, -3.56, -2.87, -2.85, -2.3, -2.93, -2.93, -2.89, -2.77, -2.8, -2.82, -2.8, -2.8, -2.8, -2.8, -2.18, -1.8, -0.57, 0.0, -0.0, 0.61, 2.23, 3.48, 5.01, 3.79, 4.09, 3.72, 4.09, 5.2, 3.6, 2.68, 0.0, 0.0, 0.0, 1.9, 4.38, 4.85, 4.47, 4.38, 3.6, 2.21, -2.0, -3.79, -3.32, -1.13, 0.78, 0.83, 0.79, -1.49, -3.95, -6.36, -8.4, -10.0, -9.7, -8.58, -6.68, -5.15, -4.66, -5.36, -4.38, -1.79, -0.0, -0.0, -0.0, 0.0, 0.0, -2.21, -3.84, -4.46, -4.46, -2.44, -2.44, -2.2, -2.4, -2.4, -2.18, -2.36, -2.32, -2.8, -3.0, -2.77, -2.96, -3.42, -3.64, -3.4, -4.05, -4.05, -4.45, -4.66, -5.06, -5.04, -5.23, -5.2, -4.68, -4.48, -4.17, -4.02, -4.17, -3.47, -3.44, -3.44, -2.87, -2.85, -2.9, -2.87, -3.32, -3.37, -2.92, -2.75, -2.77, -2.29, -2.77, -2.77, -2.8, -2.16, -1.76, -1.2, -1.2, -0.0, 1.61, 3.48, 4.11, 5.59, 5.01, 4.65, 5.2, 5.2, 4.4, 2.8, 2.24, 0.0, 1.9, 3.13, 4.82, 4.92, 4.47, 4.02, 3.9, 1.79, -1.26, -3.16, -3.6, -0.79, 0.81, 2.43, 3.83, 2.14, -2.9, -5.75, -7.63, -8.95, -9.14, -8.58, -6.98, -5.09, -4.57, -3.58, -1.26, -0.0, -0.0, -1.9, 0.0, -2.23, -2.86, -3.22, -3.58, -3.22, -3.22, -2.44, -2.44, -2.2, -2.4, -2.4, -2.18, -2.36, -2.36, -2.8, -3.0, -2.77, -2.96, -3.42, -3.64, -3.4, -4.05, -4.05, -4.03, -4.69, -4.66, -5.29, -5.26, -5.2, -5.17, -4.68, -4.68, -4.17, -3.99, -3.47, -3.47, -3.44, -2.9, -2.9, -2.32, -2.93, -3.39, -3.49, -4.0, -3.52, -3.52, -2.86, -2.86, -2.37, -2.26, -2.29, -2.32, -2.18, -1.76, -1.2, 0.0, 1.58, 4.07, 5.01, 5.01, 5.15, 4.54, 4.8, 4.09, 3.47, 2.24, 2.24, 2.4, 4.92, 4.92, 4.92, 3.13, 2.68, 1.79, 1.34, 0.0, -2.84, -3.11, -2.35, 0.0, 2.37, 3.91, 2.37, -0.72, -5.82, -8.01, -9.06, -8.8, -8.55, -6.98, -5.43, -3.83, -2.24, -0.0, -0.0, -1.0, -1.58, -2.24, -4.0, -4.22, -3.83, -3.83, -3.22, -3.22, -2.44, -2.44, -2.2, -2.4, -2.4, -2.18, -2.36, -2.36, -2.32, -2.77, -2.77, -2.96, -3.42, -3.4, -3.4, -3.6, -3.81, -4.03, -4.03, -4.44, -4.42, -5.04, -5.23, -5.2, -4.68, -4.68, -4.68, -4.51, -4.17, -3.47, -3.47, -2.9, -2.9, -2.32, -2.34, -2.84, -3.45, -3.97, -3.97, -3.97, -3.49, -3.32, -2.86, -2.21, -1.69, -1.07, -1.69, -2.29, -2.16, -1.58, 0.0, 1.86, 4.07, 5.35, 4.74, 4.43, 3.79, 4.09, 3.6, 3.35, 1.98, 2.97, 4.02, 4.82, 3.95, 3.82, 0.0, 0.0, 0.0, 0.0, -0.87, -2.47, -3.27, -3.27, -1.6, -1.54, -1.63, -0.8, -4.19, -6.21, -8.46, -8.72, -8.43, -6.96, -3.83, -1.6, -0.76, -0.0, -0.0, -0.0, -0.0, 0.0, -3.9, -4.66, -5.16, -4.8, -4.4, -4.4, -2.44, -2.44, -2.2, -2.4, -2.4, -2.18, -2.36, -2.36, -2.32, -2.8, -2.77, -2.96, -3.42, -3.4, -3.4, -3.6, -3.37, -4.03, -4.03, -4.0, -4.0, -4.63, -5.02, -4.72, -4.51, -4.51, -4.72, -4.72, -4.02, -3.5, -3.47, -2.8, -2.9, -2.87, -2.24, -2.93, -3.57, -4.16, -4.16, -4.16, -3.94, -3.49, -3.35, -3.32, -1.58, -0.55, -1.12, -2.28, -3.49, -2.96, -1.73, 0.0, 2.4, 4.07, 4.74, 3.83, 4.43, 4.65, 4.6, 4.11, 2.76, 2.84, 2.97, 3.13, 3.9, 4.0, 2.98, 0.0, -1.79, -1.34, 0.0, -0.83, -1.67, -4.2, -7.36, -7.79, -6.52, -3.29, -2.0, -2.97, -6.26, -8.64, -8.68, -7.2, -2.24, 0.65, -0.0, -0.99, -0.0, -0.0, 1.9, 1.26, -1.34, -4.41, -5.31, -5.44, -5.34, -5.34, -2.2, -2.2, -2.2, -2.2, -2.4, -2.4, -2.36, -2.36, -2.32, -2.8, -2.77, -2.96, -2.96, -3.4, -3.4, -3.6, -3.37, -4.03, -4.03, -4.0, -4.0, -4.42, -4.16, -4.6, -4.54, -4.72, -4.72, -4.05, -4.05, -3.53, -3.5, -3.47, -2.9, -2.87, -2.87, -2.9, -3.37, -3.94, -3.97, -4.16, -3.94, -4.16, -3.97, -3.56, -2.96, -1.58, -2.39, -3.49, -4.2, -4.28, -4.1, -2.82, 0.0, 2.4, 3.49, 4.12, 3.47, 3.49, 4.29, 4.29, 2.47, 0.98, 1.26, 1.26, 4.02, 4.85, 5.29, 2.84, 0.0, -1.9, -1.98, 0.0, 0.0, -0.83, -5.8, -8.72, -8.46, -5.72, -2.51, -1.58, -4.02, -6.94, -8.22, -7.01, -2.17, 1.33, 0.79, -0.0, -0.0, 0.87, 1.74, 1.9, -0.0, -4.47, -5.77, -6.55, -6.36, -6.36, -2.2, -2.2, -2.2, -2.2, -2.4, -2.4, -2.36, -2.36, -2.32, -2.8, -2.77, -2.77, -2.96, -3.4, -3.4, -3.6, -3.37, -3.56, -4.03, -4.0, -4.0, -4.0, -3.97, -3.94, -4.08, -4.05, -4.05, -4.08, -3.57, -3.39, -3.5, -3.47, -3.44, -3.56, -3.41, -2.87, -3.34, -3.42, -3.97, -3.97, -4.16, -3.94, -4.16, -4.0, -4.05, -4.83, -4.92, -4.0, -4.08, -3.47, -3.49, -3.49, -2.86, 0.0, 2.15, 3.49, 3.45, 3.45, 2.8, 2.51, 1.6, -0.0, -0.0, 2.0, 3.58, 4.92, 4.47, 3.2, 0.0, -1.19, -0.99, 0.0, 0.83, 1.55, -0.78, -5.51, -8.06, -7.12, -4.6, -3.2, -3.2, -5.36, -6.3, -6.79, -4.02, -0.0, 1.11, 0.81, 0.73, 1.41, 2.3, 1.6, 1.0, -1.79, -5.32, -7.11, -7.01, -7.01, -2.2, -2.2, -2.2, -2.2, -2.4, -2.4, -2.18, -2.36, -2.32, -2.8, -2.77, -2.77, -2.96, -3.4, -3.4, -3.6, -3.37, -3.37, -3.56, -3.35, -3.52, -4.0, -3.97, -4.16, -4.12, -3.91, -3.91, -3.94, -3.85, -3.42, -4.02, -3.99, -4.13, -3.96, -3.56, -3.56, -2.93, -3.39, -3.94, -3.97, -3.97, -3.94, -4.16, -4.42, -4.42, -5.29, -5.26, -3.49, -2.44, -2.2, -2.48, -2.22, -2.44, -2.48, -1.0, 1.9, 2.86, 2.8, 2.29, 1.12, -0.0, -0.0, 1.0, 2.54, 4.02, 5.29, 4.57, 2.68, 0.0, 0.0, 1.0, 0.0, 0.0, 0.0, 0.79, -2.34, -6.21, -7.27, -6.42, -4.87, -3.64, -3.13, -4.02, -5.09, -4.77, -2.8, -0.0, 0.57, 0.96, 2.0, 2.73, 2.3, 1.6, -0.0, -4.47, -6.21, -6.66, -6.66, -2.2, -2.2, -2.2, -2.2, -2.4, -2.4, -2.18, -2.36, -2.32, -2.8, -3.0, -2.77, -2.96, -2.75, -3.4, -3.4, -3.37, -3.37, -3.56, -3.35, -3.52, -3.52, -3.97, -3.97, -3.94, -3.61, -3.61, -3.94, -3.94, -4.87, -4.57, -4.54, -4.02, -4.17, -3.47, -3.44, -2.9, -3.37, -3.45, -3.49, -3.78, -3.97, -3.97, -3.97, -4.63, -4.8, -4.57, -3.42, -2.19, -1.76, -1.73, -1.76, -1.76, -1.8, -1.6, -0.65, 0.0, 1.8, 1.7, 1.05, 0.55, 0.85, 2.8, 3.9, 5.09, 6.02, 5.34, 3.6, 2.24, 2.21, 2.54, 0.0, -2.4, -3.27, -1.56, -0.8, -2.28, -3.13, -4.66, -4.22, -2.82, -1.49, -1.58, -2.21, -3.14, -3.32, -1.79, -0.0, 1.2, 1.8, 2.53, 3.07, 2.07, 0.85, -1.26, -4.92, -5.81, -5.81, -2.2, -2.2, -2.2, -2.2, -2.4, -2.4, -2.18, -2.36, -2.16, -2.8, -3.0, -2.77, -2.96, -2.75, -3.4, -3.4, -3.6, -3.37, -3.37, -3.56, -3.35, -3.52, -3.49, -3.49, -3.45, -3.45, -3.45, -4.12, -4.57, -4.57, -4.08, -4.08, -3.89, -3.53, -3.5, -3.34, -2.93, -2.82, -3.42, -3.49, -3.52, -3.32, -3.49, -3.97, -3.97, -3.94, -3.91, -3.57, -2.77, -2.3, -2.4, -2.32, -1.73, -1.58, -1.6, -1.16, -0.53, 0.0, 1.24, 1.61, 2.48, 2.84, 3.72, 4.8, 4.8, 5.2, 5.2, 4.6, 2.84, 3.13, 3.13, 2.68, -1.41, -4.83, -4.91, -1.55, 0.78, 0.0, -0.89, -2.15, -2.12, -2.26, -1.47, -0.73, -0.81, -1.73, -1.76, -1.33, 0.0, 1.34, 1.74, 2.68, 2.07, 1.4, -0.0, -3.58, -5.36, -5.36, -2.2, -2.2, -2.2, -2.2, -2.4, -2.4, -2.18, -2.36, -2.36, -2.8, -3.0, -2.77, -2.96, -2.96, -2.92, -3.4, -3.6, -3.37, -3.37, -3.56, -3.35, -3.52, -3.52, -3.49, -3.65, -3.45, -3.45, -3.91, -4.08, -4.08, -4.08, -4.08, -3.57, -3.39, -3.53, -3.37, -2.96, -2.96, -2.87, -3.45, -3.32, -3.52, -3.01, -2.83, -2.83, -3.49, -3.45, -3.42, -3.42, -3.45, -3.32, -2.89, -2.29, -1.7, -1.76, -1.13, -0.51, 0.0, 0.0, 2.23, 3.07, 4.09, 4.46, 4.8, 4.09, 4.09, 3.58, 3.58, 2.98, 2.97, 2.68, 3.2, 0.0, -2.49, -3.87, -1.54, 2.32, 3.91, 1.5, -0.84, -3.69, -4.22, -3.09, -2.2, -0.72, -0.57, -1.2, -0.83, 0.0, 0.0, 1.0, 2.0, 1.98, 1.74, 0.8, -1.6, -4.92, -4.92, -2.2, -2.2, -2.2, -2.2, -2.4, -2.4, -2.18, -2.36, -2.36, -2.8, -2.8, -2.77, -2.96, -2.96, -2.75, -3.4, -3.4, -3.37, -3.37, -3.56, -3.35, -3.52, -3.52, -3.49, -3.49, -3.45, -3.45, -3.91, -3.91, -3.91, -3.91, -4.08, -3.57, -3.39, -3.39, -3.53, -3.37, -2.84, -2.87, -3.45, -3.32, -3.35, -2.86, -2.21, -1.78, -2.3, -2.93, -3.42, -3.42, -3.42, -3.97, -3.52, -3.37, -2.29, -1.67, -1.19, -0.57, 0.0, 0.0, 1.2, 2.15, 3.2, 3.79, 3.48, 3.22, 3.6, 3.39, 3.2, 3.2, 2.97, 3.58, 2.97, 2.49, 0.0, -0.77, -1.6, 0.81, 2.35, 1.56, -0.7, -3.53, -5.21, -4.36, -2.98, -1.41, -0.71, -0.76, -0.84, 0.0, 0.0, 0.0, 0.0, 1.26, 1.2, 0.8, -0.0, -4.02, -4.02, -2.2, -2.2, -2.2, -2.4, -2.4, -2.4, -2.18, -2.36, -2.36, -2.8, -2.8, -2.77, -2.77, -2.96, -2.75, -2.92, -3.4, -3.6, -3.37, -3.37, -3.56, -3.52, -3.52, -3.32, -3.49, -3.94, -3.94, -3.91, -3.91, -3.91, -3.91, -3.91, -4.08, -3.89, -3.39, -3.53, -3.53, -2.84, -2.99, -3.42, -3.49, -3.56, -2.4, -1.58, -1.16, -1.67, -2.93, -3.42, -3.57, -3.91, -4.16, -4.0, -3.37, -2.92, -2.29, -1.67, -1.16, -0.55, 0.0, 0.59, 1.16, 2.23, 3.72, 3.93, 4.0, 3.82, 3.9, 4.38, 3.95, 3.13, 2.68, 3.13, 4.11, 2.19, 0.0, -2.28, -2.34, -2.39, -2.32, -2.88, -2.81, -3.4, -3.84, -2.86, -2.3, -1.52, -0.67, 0.0, 0.0, 0.0, 0.0, 0.0, 0.0, 0.0, -0.0, 0.0, -1.34, -2.68, -2.44, -2.44, -2.2, -2.4, -2.4, -2.4, -2.18, -2.36, -2.82, -2.8, -2.8, -3.0, -2.77, -2.96, -2.96, -2.92, -3.4, -3.6, -3.37, -3.37, -3.56, -3.35, -3.52, -3.52, -3.97, -3.97, -3.94, -4.12, -3.91, -3.91, -3.91, -3.91, -3.91, -4.08, -3.89, -3.39, -3.53, -3.53, -2.84, -3.39, -3.49, -3.37, -2.77, -1.63, -0.59, -1.65, -2.9, -4.05, -4.54, -4.57, -4.63, -4.03, -3.4, -3.2, -2.96, -2.29, -1.8, -1.14, 0.0, 0.0, 0.59, 1.16, 3.2, 3.6, 3.6, 4.66, 5.2, 4.38, 4.02, 2.97, 2.0, 3.13, 2.48, 1.56, 0.78, 0.0, -3.16, -4.65, -5.1, -4.18, -2.76, -2.06, -2.88, -2.6, -0.8, 0.0, 0.0, 0.0, 0.0, 0.0, 0.0, 0.0, 0.0, 0.0, -0.89, -0.89, -0.95, -1.34, -2.44, -2.44, -2.2, -2.4, -2.4, -2.4, -2.4, -2.36, -2.82, -3.04, -2.8, -3.0, -2.77, -2.96, -2.96, -2.92, -3.4, -3.4, -3.37, -3.37, -3.56, -3.35, -3.52, -3.52, -3.97, -3.97, -3.94, -4.12, -3.91, -3.91, -3.91, -3.91, -3.91, -3.91, -4.08, -3.57, -3.39, -3.39, -3.53, -3.39, -3.45, -3.56, -3.45, -3.49, -3.27, -2.93, -4.51, -5.62, -5.64, -5.26, -4.66, -4.05, -3.42, -2.96, -2.96, -2.29, -1.65, -1.14, -0.59, 0.0, 0.0, 0.59, 1.9, 3.58, 4.66, 4.09, 4.0, 3.58, 3.58, 2.98, 1.9, 1.79, 0.0, 0.0, 2.32, 3.07, 0.75, -3.11, -5.67, -4.94, -2.82, -2.15, -1.45, -0.87, 0.0, 0.0, 0.73, 0.78, 0.0, 0.0, 0.0, 0.0, 0.0, -0.87, -2.0, -2.0, -1.58, -0.95, -2.44, -2.44, -2.2, -2.2, -2.4, -2.4, -2.4, -2.82, -2.82, -2.82, -2.8, -2.8, -3.0, -2.77, -2.96, -2.75, -3.4, -3.4, -3.37, -3.37, -3.56, -3.56, -3.52, -4.0, -3.78, -3.97, -4.16, -3.94, -4.12, -3.91, -3.91, -3.91, -3.91, -3.91, -3.91, -3.91, -3.57, -3.57, -3.39, -3.53, -3.42, -3.52, -3.84, -4.45, -5.38, -6.45, -5.86, -6.29, -6.33, -5.72, -4.46, -3.42, -2.96, -2.77, -2.77, -2.29, -2.29, -1.67, -1.16, -0.54, 0.0, 0.0, 1.27, 3.13, 3.82, 4.24, 3.47, 3.58, 2.97, 2.98, 2.6, 1.79, 0.0, 0.0, 1.14, 3.41, 3.22, 0.0, -2.99, -4.03, -3.72, -1.47, 0.0, 0.0, 0.0, 0.0, 0.0, 0.0, 0.0, 0.0, 0.0, 0.0, 0.0, -0.82, -1.98, -2.6, -2.53, -2.53, -2.44, -2.44, -2.44, -2.2, -2.4, -2.4, -2.84, -2.82, -2.82, -2.82, -3.04, -2.8, -3.0, -2.77, -2.96, -2.96, -3.4, -3.4, -3.4, -3.37, -3.37, -3.56, -3.35, -4.0, -4.0, -3.97, -3.97, -3.94, -4.12, -4.12, -3.91, -4.12, -3.91, -3.91, -3.91, -3.91, -3.91, -3.42, -3.57, -3.39, -3.57, -3.49, -4.05, -4.73, -6.01, -6.33, -5.86, -5.67, -5.08, -4.46, -4.1, -3.45, -3.42, -2.96, -2.96, -2.29, -1.8, -1.67, -1.05, -0.59, -0.61, 0.0, 0.0, 1.4, 3.58, 4.24, 4.47, 4.02, 3.47, 3.47, 3.13, 1.79, 0.0, -0.99, -1.41, -1.22, 0.0, 1.57, 0.79, -0.78, -1.2, -0.65, 0.0, 0.0, 0.0, 0.0, 0.0, 0.0, 0.0, 0.0, 0.0, -0.75, -0.75, -0.81, -2.68, -2.68, -2.68, -2.68, -2.44, -2.44, -2.44, -2.2, -2.4, -2.84, -2.84, -2.82, -2.82, -2.82, -3.04, -2.8, -3.0, -2.77, -2.96, -3.42, -3.4, -3.4, -3.4, -3.37, -3.37, -3.56, -3.35, -4.0, -4.0, -3.97, -3.97, -4.16, -3.94, -4.12, -4.12, -4.12, -4.12, -3.91, -3.91, -3.91, -3.91, -3.91, -3.42, -3.57, -3.57, -3.45, -4.03, -4.46, -5.09, -5.69, -4.54, -3.91, -3.35, -2.96, -2.8, -3.45, -3.45, -2.96, -2.96, -2.96, -2.14, -1.67, -1.67, -1.16, -0.54, 0.0, 0.0, 0.0, 3.13, 4.02, 4.47, 4.92, 4.02, 4.02, 3.13, 2.0, 0.0, -0.99, -2.4, -3.27, -1.58, 0.79, 3.16, 3.17, 3.11, 2.9, 2.17, 0.69, 0.0, 0.0, -1.6, -1.52, -1.6, -1.54, -1.5, -1.56, -1.56, -1.52, -1.72, -2.53, -2.53, -2.53, -2.86, -2.86, -2.44, -2.44, -2.84, -2.84, -2.84, -2.84, -2.82, -2.82, -2.82, -2.8, -2.8, -3.0, -2.96, -3.42, -3.4, -3.4, -3.4, -3.37, -3.37, -3.56, -3.56, -4.0, -4.0, -4.2, -3.97, -4.16, -3.94, -3.94, -4.12, -4.12, -4.12, -4.12, -3.91, -3.91, -4.12, -4.12, -4.12, -3.42, -3.57, -3.61, -4.0, -4.71, -5.36, -5.06, -4.6, -3.61, -2.83, -2.23, -2.29, -2.32, -2.32, -2.32, -2.29, -2.29, -2.29, -1.8, -1.67, -1.16, -1.07, -0.55, 0.0, 0.0, 2.21, 3.58, 4.47, 4.47, 4.47, 4.15, 4.24, 2.97, 1.34, 0.0, -0.87, -0.96, 0.0, 0.0, 2.28, 5.51, 8.16, 7.76, 5.64, 2.81, 0.71, 0.0, -1.4, -2.54, -2.99, -2.44, -2.17, -2.17, -2.39, -1.68, -1.58, -1.72, -1.72, -1.72, -2.6, -2.6, -2.44, -2.44, -2.84, -2.84, -2.84, -2.84, -2.82, -2.82, -2.82, -3.04, -2.8, -3.0, -2.77, -3.42, -3.42, -3.4, -3.4, -3.6, -3.37, -3.37, -3.56, -3.8, -4.0, -4.0, -3.97, -3.97, -4.16, -3.94, -3.94, -4.12, -4.12, -4.12, -4.12, -4.12, -4.12, -4.12, -4.12, -4.12, -3.42, -3.42, -3.97, -4.45, -4.71, -5.08, -4.63, -3.94, -3.32, -2.89, -2.26, -2.32, -1.67, -1.67, -1.8, -1.65, -1.8, -1.67, -1.14, -1.16, -0.59, -0.61, 0.0, 0.0, 1.2, 3.58, 4.02, 4.02, 3.9, 4.22, 2.84, 2.6, 2.4, 1.34, 0.0, 1.0, 0.88, 0.8, 2.41, 5.63, 8.56, 7.82, 5.61, 3.58, 2.93, 1.39, 0.0, -1.49, -3.4, -3.4, -2.21, -2.31, -2.35, -2.47, -2.44, -1.63, -1.63, -1.63, -2.86, -2.86, -2.86, -2.86, -2.86, -2.84, -2.84, -2.84, -3.08, -2.82, -2.82, -3.04, -2.8, -3.0, -3.21, -3.42, -3.42, -3.4, -3.4, -3.6, -3.37, -3.37, -3.56, -4.03, -4.0, -4.0, -4.2, -3.97, -4.16, -4.16, -3.94, -4.12, -4.12, -4.12, -4.12, -4.12, -4.12, -4.12, -3.94, -3.94, -3.91, -3.91, -3.94, -4.0, -4.71, -5.09, -4.66, -4.42, -4.0, -3.37, -2.96, -2.32, -1.67, -1.14, -1.14, -0.58, -0.58, -0.53, -0.59, -0.59, 0.0, 0.0, 0.0, 0.57, 1.84, 3.6, 3.58, 3.58, 3.2, 2.0, 2.6, 2.54, 2.4, 2.0, 1.79, 2.0, 1.8, 2.35, 4.34, 6.24, 6.57, 5.45, 4.75, 5.02, 4.38, 2.18, 0.0, -0.68, -1.68, -3.2, -3.4, -3.09, -3.27, -2.44, -2.18, -1.63, -1.63, -1.63, -2.86, -2.86, -2.6, -2.86, -2.86, -2.84, -2.84, -2.84, -2.84, -2.82, -2.82, -3.04, -2.8, -3.0, -3.45, -3.42, -3.42, -3.4, -3.4, -3.4, -3.6, -3.37, -3.56, -4.03, -4.0, -4.0, -4.0, -3.97, -3.97, -4.16, -4.16, -3.94, -4.12, -4.12, -4.12, -4.12, -4.12, -3.94, -3.94, -3.94, -4.12, -3.91, -3.94, -4.2, -4.45, -4.71, -4.69, -4.66, -4.03, -3.6, -3.42, -3.0, -1.67, -1.14, -0.58, -0.58, 0.0, 0.0, 0.0, 0.0, 0.0, 0.0, 0.61, 1.23, 2.51, 2.84, 3.2, 3.13, 2.68, 1.34, 1.79, 2.68, 2.54, 2.68, 2.68, 2.97, 2.84, 3.63, 5.37, 5.59, 5.06, 3.96, 5.62, 6.51, 5.17, 2.81, 0.0, -0.71, -2.31, -3.0, -3.33, -3.11, -2.47, -1.72, -1.72, -0.76, -0.76, -0.76, -2.86, -2.86, -2.48, -2.86, -2.86, -2.86, -2.84, -2.84, -2.84, -2.82, -2.82, -3.04, -2.8, -3.45, -3.45, -3.42, -3.42, -3.64, -3.4, -3.4, -3.6, -3.37, -4.03, -4.03, -4.03, -4.0, -4.0, -4.2, -3.97, -4.16, -4.16, -4.16, -3.94, -4.12, -4.12, -4.12, -4.12, -3.94, -3.94, -3.94, -3.94, -4.12, -4.12, -3.97, -4.03, -4.71, -4.69, -4.69, -4.03, -4.05, -3.42, -2.77, -2.32, -1.8, -0.57, -0.58, 0.0, 0.0, 0.0, 0.0, 0.61, 0.61, 1.08, 1.58, 2.51, 2.53, 2.97, 2.97, 2.4, 1.58, 1.34, 1.79, 2.97, 2.97, 3.13, 2.97, 3.6, 4.22, 5.21, 4.95, 3.15, 3.95, 6.33, 6.9, 5.09, 2.84, 0.0, -1.41, -2.2, -2.2, -2.2, -2.41, -1.13, 0.0, 0.0, 0.0, 0.0, 0.0, -2.86, -2.86, -2.48, -2.22, -2.86, -2.86, -2.84, -2.84, -2.84, -3.08, -2.82, -3.04, -3.04, -3.45, -3.45, -3.42, -3.42, -3.64, -3.4, -3.4, -3.6, -4.05, -3.81, -4.03, -4.03, -4.0, -4.0, -4.2, -4.2, -4.42, -4.63, -4.63, -4.63, -4.4, -3.94, -3.94, -3.94, -3.94, -4.16, -4.16, -4.16, -3.94, -4.12, -4.16, -4.0, -4.71, -4.71, -4.45, -4.45, -4.05, -4.08, -3.42, -2.77, -1.76, -1.2, -0.57, -0.57, 0.0, 0.0, 0.0, 0.61, 0.55, 1.23, 1.8, 1.84, 1.74, 2.4, 2.54, 2.97, 1.9, 1.0, 0.0, 0.0, 2.4, 2.54, 3.13, 3.47, 3.6, 3.58, 3.22, 2.51, 3.09, 4.0, 4.06, 3.13, 0.7, 2.0, -0.0, -0.95, -0.73, -0.81, -1.0, 0.0, 1.26, 0.85, 0.0, 0.0, 0.0, -2.86, -2.23, -2.48, -2.22, -2.86, -2.86, -2.61, -2.84, -2.84, -3.08, -2.82, -3.04, -3.47, -3.22, -3.45, -3.45, -3.42, -3.42, -3.64, -3.4, -3.83, -4.05, -3.81, -4.03, -4.03, -4.24, -4.0, -4.0, -4.2, -4.42, -4.42, -4.63, -4.63, -4.63, -4.63, -3.94, -3.94, -4.16, -4.16, -4.16, -3.97, -3.94, -3.94, -3.94, -4.2, -4.03, -4.46, -4.71, -4.71, -4.46, -4.08, -4.1, -3.68, -2.29, -1.73, -1.18, -0.61, -0.58, 0.0, 0.0, 0.0, 0.0, 0.63, 1.13, 1.16, 1.2, 1.58, 1.79, 2.24, 2.0, 1.58, 0.0, 1.26, 1.79, 2.54, 2.68, 2.68, 2.97, 2.98, 1.83, 1.72, 2.64, 1.73, 0.82, 0.0, 0.0, 2.8, 2.98, 1.0, 0.0, 0.0, 0.0, 2.24, 2.68, 2.0, 1.58, 1.58, 1.58, -2.23, -2.23, -2.48, -2.48, -2.86, -2.86, -2.86, -2.84, -2.84, -3.08, -2.82, -3.04, -3.47, -3.22, -3.45, -3.45, -3.42, -3.42, -3.64, -3.4, -3.83, -4.05, -4.05, -4.03, -4.03, -4.03, -4.0, -4.0, -4.66, -4.66, -4.42, -4.42, -4.63, -4.63, -4.63, -4.63, -4.16, -4.16, -4.16, -3.97, -3.97, -4.16, -3.94, -3.94, -3.97, -4.03, -4.05, -4.46, -4.46, -4.73, -4.75, -4.1, -3.85, -3.0, -2.96, -1.73, -1.18, -1.2, -0.58, 0.0, 0.0, 0.0, 0.0, 0.0, 0.51, 0.0, 0.0, 0.89, 1.34, 1.79, 0.0, 0.0, 0.0, 2.0, 2.24, 2.24, 2.24, 2.4, 0.99, 0.0, 0.81, 1.84, 0.79, -1.54, -2.17, -1.39, 3.58, 4.46, 3.2, 1.34, 0.85, 0.85, 2.68, 2.68, 2.24, 1.79, 1.79, 1.79, -2.51, -2.51, -2.48, -2.48, -2.6, -2.86, -2.86, -2.84, -2.84, -3.08, -2.82, -3.47, -3.47, -3.47, -3.45, -3.45, -3.68, -3.42, -3.42, -3.64, -3.83, -4.05, -4.05, -3.81, -4.03, -4.03, -4.24, -4.0, -4.44, -4.66, -4.66, -4.42, -4.42, -4.63, -4.63, -4.63, -4.16, -3.97, -3.97, -3.97, -3.97, -3.97, -4.16, -3.94, -3.97, -4.03, -4.05, -4.08, -4.47, -4.47, -4.47, -4.12, -3.47, -3.47, -3.0, -2.77, -2.26, -1.73, -1.12, -1.14, -0.59, 0.0, 0.0, 0.0, 0.0, 0.0, 0.0, 0.0, 1.34, 1.34, 0.0, 0.0, 0.0, 1.34, 1.79, 1.79, 1.34, 0.0, 0.0, 0.0, 0.0, 0.0, -0.76, -0.78, -1.46, -0.72, 3.58, 4.46, 3.83, 2.23, 1.34, 1.6, 2.24, 2.24, 2.24, 1.26, 1.26, 1.26, -2.51, -2.51, -2.23, -2.86, -2.6, -2.86, -2.86, -2.84, -2.84, -3.08, -2.82, -3.47, -3.47, -3.47, -3.45, -3.45, -3.68, -3.42, -3.42, -3.64, -4.08, -3.83, -4.05, -4.05, -4.03, -4.03, -4.03, -4.24, -4.44, -4.66, -4.66, -4.66, -4.42, -4.42, -4.42, -4.42, -3.97, -3.97, -3.97, -3.97, -3.97, -3.97, -3.97, -4.16, -3.97, -4.0, -4.05, -4.08, -4.08, -4.75, -4.47, -4.12, -3.47, -2.82, -2.82, -2.8, -2.77, -2.26, -1.63, -1.8, -1.05, -0.59, -0.61, -0.63, -0.59, -0.59, 0.0, 0.0, 0.0, 0.0, 0.0, 0.0, -0.0, 0.0, 1.34, 0.0, -1.34, -2.6, -2.95, -2.53, -1.66, -1.83, -0.82, 0.0, 0.0, 0.0, 2.53, 4.11, 4.46, 2.84, 1.0, 1.34, 2.24, 2.4, 1.58, 1.0, 1.0, 1.0, -2.84, -2.84, -2.23, -2.86, -2.86, -2.86, -2.86, -2.84, -2.84, -3.08, -3.22, -3.22, -3.47, -3.47, -3.45, -3.45, -3.45, -3.68, -3.42, -3.64, -4.08, -3.83, -4.05, -4.05, -4.28, -4.03, -4.03, -4.24, -4.44, -4.44, -4.66, -4.66, -4.66, -4.66, -4.66, -3.97, -3.97, -3.97, -3.97, -4.2, -4.2, -3.97, -3.97, -3.97, -3.97, -4.0, -4.05, -4.08, -4.1, -4.47, -4.45, -4.12, -3.49, -3.08, -3.08, -2.82, -2.8, -2.77, -2.44, -2.29, -1.67, -1.16, -1.16, -1.19, -0.57, -0.59, -0.51, 0.0, 0.0, 0.0, 0.0, 0.0, 0.0, 0.0, 1.34, 0.89, -1.34, -3.9, -4.6, -4.19, -3.48, -3.33, -2.44, -0.77, 0.0, -0.84, 0.85, 3.64, 4.46, 3.16, 0.76, 0.85, 2.6, 1.9, 1.2, -0.0, -0.0, -0.0, -2.84, -2.84, -2.84, -2.86, -2.86, -2.86, -2.86, -3.12, -2.84, -3.08, -3.49, -3.22, -3.47, -3.47, -3.47, -3.45, -3.45, -3.68, -3.42, -3.84, -4.08, -4.08, -3.83, -4.05, -4.05, -4.03, -4.03, -4.03, -4.24, -4.44, -4.44, -4.66, -4.66, -4.66, -4.66, -4.2, -4.2, -4.2, -4.2, -4.2, -4.0, -4.2, -3.97, -3.97, -3.97, -4.0, -4.03, -4.08, -4.1, -4.47, -4.45, -4.12, -3.49, -3.08, -2.84, -2.84, -2.82, -2.8, -2.77, -2.77, -2.32, -1.67, -1.7, -1.19, -1.23, -1.27, -0.59, -0.65, 0.0, 0.0, 0.0, 0.0, 0.0, 0.0, 0.0, 0.0, -1.34, -3.47, -4.6, -5.2, -5.21, -4.74, -4.83, -3.95, -2.37, -1.6, 0.0, 2.98, 4.46, 3.83, 2.53, 1.49, 1.6, 1.9, 1.2, -0.0, -0.0, -0.0, -2.84, -2.84, -2.84, -2.86, -2.86, -2.86, -2.86, -3.12, -2.84, -3.08, -3.49, -3.22, -3.47, -3.47, -3.47, -3.45, -3.45, -3.45, -3.68, -3.84, -4.08, -4.08, -3.83, -4.05, -4.05, -4.28, -4.03, -4.03, -4.03, -4.69, -4.44, -4.44, -4.44, -4.66, -4.66, -4.0, -4.0, -4.0, -4.0, -4.0, -4.0, -4.0, -4.0, -3.97, -3.97, -4.0, -4.03, -3.64, -4.1, -4.75, -4.45, -4.12, -3.49, -3.22, -2.84, -2.84, -2.82, -3.04, -3.45, -3.0, -2.8, -2.32, -2.16, -1.7, -1.73, -1.11, -1.13, -1.16, -0.71, 0.0, 0.0, 0.0, 0.0, 0.0, -1.34, -1.26, -1.79, -2.24, -4.15, -4.8, -5.2, -5.15, -5.69, -5.52, -4.58, -3.25, -2.95, -0.0, 3.07, 4.22, 3.58, 1.49, 0.87, 0.85, 0.85, -0.0, -0.0, -0.0, -2.84, -2.84, -2.84, -2.86, -2.86, -2.86, -2.86, -3.12, -2.84, -2.84, -3.49, -3.49, -3.47, -3.47, -3.47, -3.72, -3.45, -3.45, -3.68, -3.84, -4.08, -4.08, -4.08, -4.05, -4.05, -4.05, -4.28, -4.03, -4.03, -4.69, -4.69, -4.44, -4.44, -4.44, -4.0, -4.0, -4.0, -4.0, -4.0, -4.0, -4.0, -4.0, -4.0, -4.0, -4.2, -4.0, -4.03, -3.64, -4.1, -4.12, -4.45, -4.12, -3.49, -3.22, -2.84, -2.84, -2.84, -2.82, -3.47, -3.47, -3.47, -2.8, -2.32, -2.16, -2.4, -1.76, -1.8, -1.6, -1.88, -1.26, 0.0, 0.0, 0.0, 0.0, 0.0, -1.26, -2.0, -2.0, -3.13, -4.38, -5.09, -5.82, -5.69, -5.9, -5.4, -3.91, -4.12, -3.04, 0.76, 3.16, 3.16, 1.6, -0.0, -0.0, -0.0, -0.0, -0.0, -0.0, -2.84, -2.84, -2.84, -2.86, -2.86, -3.15, -2.86, -3.12, -3.12, -3.22, -3.49, -3.49, -3.22, -3.47, -3.47, -3.47, -3.45, -3.45, -4.1, -4.1, -3.84, -4.08, -4.08, -3.83, -4.05, -4.05, -4.05, -4.03, -4.03, -4.45, -4.69, -4.69, -4.44, -4.44, -4.44, -4.0, -4.0, -4.0, -4.0, -4.0, -4.0, -4.0, -4.0, -4.0, -4.0, -4.0, -4.03, -3.4, -4.1, -4.12, -4.45, -4.12, -4.11, -3.49, -3.49, -3.12, -2.84, -2.82, -3.47, -3.47, -3.47, -3.47, -2.8, -2.8, -2.36, -2.2, -2.22, -2.23, -2.23, -1.61, -0.8, 0.0, 0.0, 0.0, 0.0, -1.34, -1.9, -2.6, -3.47, -4.47, -5.29, -6.4, -6.39, -6.42, -5.72, -4.93, -4.13, -4.16, -2.24, 0.85, 2.15, 1.6, -0.0, -0.0, -0.0, -0.0, -0.0, -0.0, -2.84, -2.84, -2.84, -3.16, -2.86, -3.15, -2.86, -2.86, -3.12, -3.22, -3.49, -3.49, -3.49, -3.47, -3.47, -3.47, -3.72, -3.45, -4.1, -4.1, -3.84, -4.08, -4.08, -4.08, -4.05, -4.05, -4.05, -4.28, -4.03, -4.45, -4.45, -4.69, -4.69, -4.44, -4.44, -4.0, -4.24, -4.24, -4.24, -4.0, -4.0, -4.0, -4.0, -4.0, -4.0, -4.0, -4.03, -3.4, -4.1, -4.12, -4.74, -4.12, -4.11, -3.49, -3.49, -3.49, -3.22, -3.49, -3.47, -3.47, -3.49, -3.47, -3.47, -3.45, -2.8, -2.82, -2.44, -2.48, -2.48, -2.23, -1.9, -0.57, -0.6, 0.0, 0.0, -1.34, -1.9, -2.98, -3.9, -4.92, -6.02, -6.8, -7.44, -7.27, -6.45, -5.4, -4.01, -3.88, -3.9, -2.68, -0.0, 0.99, -0.0, -0.0, -0.0, -0.0, -0.0, -0.0, -2.84, -2.84, -2.84, -3.16, -2.86, -3.15, -2.86, -2.86, -3.12, -3.22, -3.49, -3.49, -3.49, -3.47, -3.47, -3.47, -3.72, -3.45, -4.1, -4.1, -3.84, -4.08, -4.08, -4.08, -4.05, -4.05, -4.05, -4.28, -4.03, -4.45, -4.45, -4.69, -4.69, -4.44, -4.44, -4.0, -4.24, -4.24, -4.24, -4.0, -4.0, -4.0, -4.0, -4.0, -4.0, -4.0, -4.03, -3.4, -4.1, -4.12, -4.74, -4.12, -4.11, -3.49, -3.49, -3.49, -3.22, -3.49, -3.47, -3.47, -3.49, -3.47, -3.47, -3.45, -2.8, -2.82, -2.44, -2.48, -2.48, -2.23, -1.9, -0.57, -0.6, 0.0, 0.0, -1.34, -2.21, -2.98, -3.9, -4.92, -6.02, -6.8, -7.44, -7.68, -7.08, -5.51, -5.0, -4.07, -4.12, -4.43, -3.13, -1.0, -0.0, -0.0, -0.0, -0.0, -0.0, -0.0]}]